Time,TemperatureF,DewpointF,PressureIn,WindDirection,WindDirectionDegrees,WindSpeedMPH,WindSpeedGustMPH,Humidity,HourlyPrecipIn,Conditions,Clouds,dailyrainin,SoftwareType,DateUTC
2013-04-18 00:01:00,71.1,62.8,30.10,SW,214,1.0,1.0,75,0.00,,,0.00,Wunderground v.1.15,2013-04-18 04:01:00,
2013-04-18 00:02:00,71.0,62.7,30.10,SW,224,0.0,1.0,75,0.00,,,0.00,Wunderground v.1.15,2013-04-18 04:02:00,
2013-04-18 00:05:00,71.0,62.3,30.10,SSE,152,0.0,1.0,74,0.00,,,0.00,Wunderground v.1.15,2013-04-18 04:05:00,
2013-04-18 00:06:00,71.0,62.7,30.10,SSE,152,0.0,1.0,75,0.00,,,0.00,Wunderground v.1.15,2013-04-18 04:06:00,
2013-04-18 00:08:00,70.9,62.2,30.10,SSE,150,1.0,1.0,74,0.00,,,0.00,Wunderground v.1.15,2013-04-18 04:08:00,
2013-04-18 00:09:00,70.9,62.2,30.10,SSE,160,0.0,1.0,74,0.00,,,0.00,Wunderground v.1.15,2013-04-18 04:09:00,
2013-04-18 00:10:00,70.9,62.2,30.10,SSE,158,1.0,1.0,74,0.00,,,0.00,Wunderground v.1.15,2013-04-18 04:10:00,
2013-04-18 00:13:00,70.8,62.1,30.10,SE,146,0.0,1.0,74,0.00,,,0.00,Wunderground v.1.15,2013-04-18 04:13:00,
2013-04-18 00:14:00,70.7,62.0,30.10,SE,146,0.0,1.0,74,0.00,,,0.00,Wunderground v.1.15,2013-04-18 04:14:00,
2013-04-18 00:15:00,70.7,62.0,30.09,SE,146,1.0,1.0,74,0.00,,,0.00,Wunderground v.1.15,2013-04-18 04:15:00,
2013-04-18 00:16:00,70.7,61.6,30.10,SSW,210,2.0,2.0,73,0.00,,,0.00,Wunderground v.1.15,2013-04-18 04:16:00,
2013-04-18 00:21:00,70.6,61.1,30.09,South,184,1.0,1.0,72,0.00,,,0.00,Wunderground v.1.15,2013-04-18 04:21:00,
2013-04-18 00:22:00,70.5,61.0,30.09,ESE,113,2.0,2.0,72,0.00,,,0.00,Wunderground v.1.15,2013-04-18 04:22:00,
2013-04-18 00:23:00,70.5,61.0,30.09,ESE,115,1.0,2.0,72,0.00,,,0.00,Wunderground v.1.15,2013-04-18 04:23:00,
2013-04-18 00:26:00,70.5,61.0,30.09,South,191,0.0,2.0,72,0.00,,,0.00,Wunderground v.1.15,2013-04-18 04:26:00,
2013-04-18 00:27:00,70.5,61.0,30.09,SSE,165,1.0,2.0,72,0.00,,,0.00,Wunderground v.1.15,2013-04-18 04:27:00,
2013-04-18 00:30:00,70.4,60.5,30.10,SSW,211,3.0,3.0,71,0.00,,,0.00,Wunderground v.1.15,2013-04-18 04:30:00,
2013-04-18 00:32:00,70.3,60.4,30.09,South,177,0.0,3.0,71,0.00,,,0.00,Wunderground v.1.15,2013-04-18 04:32:00,
2013-04-18 00:33:00,70.3,60.4,30.09,South,178,0.0,3.0,71,0.00,,,0.00,Wunderground v.1.15,2013-04-18 04:33:00,
2013-04-18 00:35:00,70.2,60.4,30.09,SSW,212,0.0,3.0,71,0.00,,,0.00,Wunderground v.1.15,2013-04-18 04:35:00,
2013-04-18 00:37:00,70.1,60.3,30.09,SW,216,2.0,3.0,71,0.00,,,0.00,Wunderground v.1.15,2013-04-18 04:37:00,
2013-04-18 00:38:00,70.1,59.9,30.09,SSW,194,1.0,3.0,70,0.00,,,0.00,Wunderground v.1.15,2013-04-18 04:38:00,
2013-04-18 00:40:00,70.0,59.8,30.10,SW,217,2.0,2.0,70,0.00,,,0.00,Wunderground v.1.15,2013-04-18 04:40:00,
2013-04-18 00:42:00,70.0,59.8,30.10,SE,125,1.0,2.0,70,0.00,,,0.00,Wunderground v.1.15,2013-04-18 04:42:00,
2013-04-18 00:43:00,69.9,59.7,30.10,SSE,160,0.0,2.0,70,0.00,,,0.00,Wunderground v.1.15,2013-04-18 04:43:00,
2013-04-18 00:45:00,69.9,59.7,30.09,SSE,160,0.0,2.0,70,0.00,,,0.00,Wunderground v.1.15,2013-04-18 04:45:00,
2013-04-18 00:47:00,69.8,59.6,30.09,SSE,156,0.0,2.0,70,0.00,,,0.00,Wunderground v.1.15,2013-04-18 04:47:00,
2013-04-18 00:48:00,69.8,59.6,30.09,SSE,156,0.0,2.0,70,0.00,,,0.00,Wunderground v.1.15,2013-04-18 04:48:00,
2013-04-18 00:52:00,69.6,59.4,30.10,SSW,210,1.0,1.0,70,0.00,,,0.00,Wunderground v.1.15,2013-04-18 04:52:00,
2013-04-18 00:53:00,69.5,59.3,30.09,SW,216,2.0,2.0,70,0.00,,,0.00,Wunderground v.1.15,2013-04-18 04:53:00,
2013-04-18 00:55:00,69.4,59.2,30.09,SW,216,0.0,2.0,70,0.00,,,0.00,Wunderground v.1.15,2013-04-18 04:55:00,
2013-04-18 00:56:00,69.4,59.6,30.09,SW,216,0.0,2.0,71,0.00,,,0.00,Wunderground v.1.15,2013-04-18 04:56:00,
2013-04-18 01:00:00,69.2,59.4,30.09,SSW,210,0.0,1.0,71,0.00,,,0.00,Wunderground v.1.15,2013-04-18 05:00:00,
2013-04-18 01:01:00,69.2,59.4,30.09,SW,217,1.0,1.0,71,0.00,,,0.00,Wunderground v.1.15,2013-04-18 05:01:00,
2013-04-18 01:03:00,69.0,59.2,30.09,SSW,208,0.0,1.0,71,0.00,,,0.00,Wunderground v.1.15,2013-04-18 05:03:00,
2013-04-18 01:05:00,68.9,59.1,30.09,SW,221,0.0,1.0,71,0.00,,,0.00,Wunderground v.1.15,2013-04-18 05:05:00,
2013-04-18 01:06:00,68.9,59.1,30.09,SW,221,1.0,1.0,71,0.00,,,0.00,Wunderground v.1.15,2013-04-18 05:06:00,
2013-04-18 01:08:00,68.8,59.4,30.09,SW,221,0.0,1.0,72,0.00,,,0.00,Wunderground v.1.15,2013-04-18 05:08:00,
2013-04-18 01:10:00,68.7,59.3,30.09,SW,221,0.0,0.0,72,0.00,,,0.00,Wunderground v.1.15,2013-04-18 05:10:00,
2013-04-18 01:11:00,68.7,59.3,30.09,SW,221,0.0,0.0,72,0.00,,,0.00,Wunderground v.1.15,2013-04-18 05:11:00,
2013-04-18 01:12:00,68.6,59.2,30.09,SW,221,0.0,0.0,72,0.00,,,0.00,Wunderground v.1.15,2013-04-18 05:12:00,
2013-04-18 01:14:00,68.5,59.1,30.09,SW,221,0.0,1.0,72,0.00,,,0.00,Wunderground v.1.15,2013-04-18 05:14:00,
2013-04-18 01:15:00,68.4,59.0,30.09,SW,221,0.0,1.0,72,0.00,,,0.00,Wunderground v.1.15,2013-04-18 05:15:00,
2013-04-18 01:18:00,68.3,58.9,30.09,SW,221,0.0,1.0,72,0.00,,,0.00,Wunderground v.1.15,2013-04-18 05:18:00,
2013-04-18 01:20:00,68.2,58.8,30.09,SSW,208,0.0,0.0,72,0.00,,,0.00,Wunderground v.1.15,2013-04-18 05:20:00,
2013-04-18 01:21:00,68.2,58.8,30.09,SSW,208,0.0,0.0,72,0.00,,,0.00,Wunderground v.1.15,2013-04-18 05:21:00,
2013-04-18 01:25:00,68.0,59.0,30.09,SSW,193,0.0,0.0,73,0.00,,,0.00,Wunderground v.1.15,2013-04-18 05:25:00,
2013-04-18 01:26:00,67.9,58.9,30.09,SSW,193,0.0,0.0,73,0.00,,,0.00,Wunderground v.1.15,2013-04-18 05:26:00,
2013-04-18 01:27:00,67.9,58.9,30.09,SSW,193,0.0,0.0,73,0.00,,,0.00,Wunderground v.1.15,2013-04-18 05:27:00,
2013-04-18 01:30:00,67.8,58.8,30.09,SSW,193,0.0,0.0,73,0.00,,,0.00,Wunderground v.1.15,2013-04-18 05:30:00,
2013-04-18 01:31:00,67.8,58.8,30.09,SSW,193,0.0,0.0,73,0.00,,,0.00,Wunderground v.1.15,2013-04-18 05:31:00,
2013-04-18 01:33:00,67.7,58.7,30.09,SSW,193,0.0,0.0,73,0.00,,,0.00,Wunderground v.1.15,2013-04-18 05:33:00,
2013-04-18 01:34:00,67.6,58.6,30.09,SSW,193,0.0,0.0,73,0.00,,,0.00,Wunderground v.1.15,2013-04-18 05:34:00,
2013-04-18 01:35:00,67.6,58.6,30.09,SSW,193,0.0,0.0,73,0.00,,,0.00,Wunderground v.1.15,2013-04-18 05:35:00,
2013-04-18 01:36:00,67.6,58.6,30.09,SSW,193,0.0,0.0,73,0.00,,,0.00,Wunderground v.1.15,2013-04-18 05:36:00,
2013-04-18 01:39:00,67.4,58.8,30.09,SSW,193,0.0,0.0,74,0.00,,,0.00,Wunderground v.1.15,2013-04-18 05:39:00,
2013-04-18 01:42:00,67.3,58.7,30.09,SSW,193,0.0,0.0,74,0.00,,,0.00,Wunderground v.1.15,2013-04-18 05:42:00,
2013-04-18 01:43:00,67.2,58.6,30.09,SSW,193,0.0,0.0,74,0.00,,,0.00,Wunderground v.1.15,2013-04-18 05:43:00,
2013-04-18 01:46:00,67.0,58.4,30.09,SSW,193,0.0,0.0,74,0.00,,,0.00,Wunderground v.1.15,2013-04-18 05:46:00,
2013-04-18 01:48:00,66.9,58.7,30.09,SSW,193,0.0,0.0,75,0.00,,,0.00,Wunderground v.1.15,2013-04-18 05:48:00,
2013-04-18 01:50:00,66.8,58.6,30.08,SSW,193,0.0,0.0,75,0.00,,,0.00,Wunderground v.1.15,2013-04-18 05:50:00,
2013-04-18 01:51:00,66.8,58.6,30.08,SSW,193,0.0,0.0,75,0.00,,,0.00,Wunderground v.1.15,2013-04-18 05:51:00,
2013-04-18 01:53:00,66.7,58.5,30.08,South,179,0.0,0.0,75,0.00,,,0.00,Wunderground v.1.15,2013-04-18 05:53:00,
2013-04-18 01:55:00,66.7,58.5,30.08,South,179,1.0,1.0,75,0.00,,,0.00,Wunderground v.1.15,2013-04-18 05:55:00,
2013-04-18 01:57:00,66.6,58.4,30.08,SSE,167,0.0,1.0,75,0.00,,,0.00,Wunderground v.1.15,2013-04-18 05:57:00,
2013-04-18 01:59:00,66.6,58.4,30.08,SSE,167,0.0,1.0,75,0.00,,,0.00,Wunderground v.1.15,2013-04-18 05:59:00,
2013-04-18 02:00:00,66.5,58.3,30.08,SSE,167,0.0,0.0,75,0.00,,,0.00,Wunderground v.1.15,2013-04-18 06:00:00,
2013-04-18 02:01:00,66.5,58.3,30.08,SSE,167,0.0,0.0,75,0.00,,,0.00,Wunderground v.1.15,2013-04-18 06:01:00,
2013-04-18 02:02:00,66.4,58.6,30.09,SSE,167,0.0,0.0,76,0.00,,,0.00,Wunderground v.1.15,2013-04-18 06:02:00,
2013-04-18 02:04:00,66.4,58.6,30.08,SSE,168,0.0,0.0,76,0.00,,,0.00,Wunderground v.1.15,2013-04-18 06:04:00,
2013-04-18 02:05:00,66.3,58.5,30.08,SSE,167,0.0,0.0,76,0.00,,,0.00,Wunderground v.1.15,2013-04-18 06:05:00,
2013-04-18 02:07:00,66.2,58.4,30.08,SSE,167,0.0,0.0,76,0.00,,,0.00,Wunderground v.1.15,2013-04-18 06:07:00,
2013-04-18 02:09:00,66.2,58.4,30.08,SSE,167,0.0,0.0,76,0.00,,,0.00,Wunderground v.1.15,2013-04-18 06:09:00,
2013-04-18 02:10:00,66.1,58.3,30.08,SSE,167,0.0,0.0,76,0.00,,,0.00,Wunderground v.1.15,2013-04-18 06:10:00,
2013-04-18 02:12:00,66.0,58.2,30.08,SSE,168,0.0,0.0,76,0.00,,,0.00,Wunderground v.1.15,2013-04-18 06:12:00,
2013-04-18 02:15:00,66.0,58.2,30.08,SSE,167,0.0,0.0,76,0.00,,,0.00,Wunderground v.1.15,2013-04-18 06:15:00,
2013-04-18 02:17:00,65.8,58.4,30.08,SSE,167,0.0,0.0,77,0.00,,,0.00,Wunderground v.1.15,2013-04-18 06:17:00,
2013-04-18 02:18:00,65.8,58.4,30.08,SSE,167,0.0,0.0,77,0.00,,,0.00,Wunderground v.1.15,2013-04-18 06:18:00,
2013-04-18 02:20:00,65.8,58.4,30.08,SSE,167,0.0,0.0,77,0.00,,,0.00,Wunderground v.1.15,2013-04-18 06:20:00,
2013-04-18 02:22:00,65.7,58.3,30.08,SSE,167,0.0,0.0,77,0.00,,,0.00,Wunderground v.1.15,2013-04-18 06:22:00,
2013-04-18 02:23:00,65.7,58.3,30.08,SSE,167,0.0,0.0,77,0.00,,,0.00,Wunderground v.1.15,2013-04-18 06:23:00,
2013-04-18 02:25:00,65.6,58.2,30.08,SSE,167,0.0,0.0,77,0.00,,,0.00,Wunderground v.1.15,2013-04-18 06:25:00,
2013-04-18 02:26:00,65.5,58.1,30.08,SSE,167,0.0,0.0,77,0.00,,,0.00,Wunderground v.1.15,2013-04-18 06:26:00,
2013-04-18 02:27:00,65.5,58.1,30.08,SSE,167,0.0,0.0,77,0.00,,,0.00,Wunderground v.1.15,2013-04-18 06:27:00,
2013-04-18 02:29:00,65.5,58.5,30.08,SSE,168,0.0,0.0,78,0.00,,,0.00,Wunderground v.1.15,2013-04-18 06:29:00,
2013-04-18 02:30:00,65.4,58.4,30.08,SSE,167,0.0,0.0,78,0.00,,,0.00,Wunderground v.1.15,2013-04-18 06:30:00,
2013-04-18 02:31:00,65.4,58.4,30.08,SSE,167,0.0,0.0,78,0.00,,,0.00,Wunderground v.1.15,2013-04-18 06:31:00,
2013-04-18 02:32:00,65.4,58.4,30.08,SSE,167,0.0,0.0,78,0.00,,,0.00,Wunderground v.1.15,2013-04-18 06:32:00,
2013-04-18 02:33:00,65.4,58.4,30.08,SSE,167,0.0,0.0,78,0.00,,,0.00,Wunderground v.1.15,2013-04-18 06:33:00,
2013-04-18 02:34:00,65.3,58.3,30.08,SSE,167,0.0,0.0,78,0.00,,,0.00,Wunderground v.1.15,2013-04-18 06:34:00,
2013-04-18 02:35:00,65.2,58.2,30.08,SSE,167,0.0,0.0,78,0.00,,,0.00,Wunderground v.1.15,2013-04-18 06:35:00,
2013-04-18 02:36:00,65.2,58.2,30.08,SSE,167,0.0,0.0,78,0.00,,,0.00,Wunderground v.1.15,2013-04-18 06:36:00,
2013-04-18 02:38:00,65.2,58.2,30.08,SSE,167,0.0,0.0,78,0.00,,,0.00,Wunderground v.1.15,2013-04-18 06:38:00,
2013-04-18 02:39:00,65.1,58.1,30.08,SSE,167,0.0,0.0,78,0.00,,,0.00,Wunderground v.1.15,2013-04-18 06:39:00,
2013-04-18 02:41:00,65.1,58.4,30.08,SSE,167,0.0,0.0,79,0.00,,,0.00,Wunderground v.1.15,2013-04-18 06:41:00,
2013-04-18 02:43:00,65.0,58.3,30.08,SSE,168,0.0,0.0,79,0.00,,,0.00,Wunderground v.1.15,2013-04-18 06:43:00,
2013-04-18 02:44:00,65.0,58.3,30.08,SSE,167,0.0,0.0,79,0.00,,,0.00,Wunderground v.1.15,2013-04-18 06:44:00,
2013-04-18 02:46:00,64.9,58.2,30.08,SSE,167,0.0,0.0,79,0.00,,,0.00,Wunderground v.1.15,2013-04-18 06:46:00,
2013-04-18 02:48:00,64.9,58.2,30.08,SSE,167,0.0,0.0,79,0.00,,,0.00,Wunderground v.1.15,2013-04-18 06:48:00,
2013-04-18 02:49:00,64.8,58.1,30.08,SSE,168,0.0,0.0,79,0.00,,,0.00,Wunderground v.1.15,2013-04-18 06:49:00,
2013-04-18 02:51:00,64.7,58.4,30.08,SSE,167,0.0,0.0,80,0.00,,,0.00,Wunderground v.1.15,2013-04-18 06:51:00,
2013-04-18 02:52:00,64.7,58.4,30.08,SSE,167,0.0,0.0,80,0.00,,,0.00,Wunderground v.1.15,2013-04-18 06:52:00,
2013-04-18 02:53:00,64.7,58.4,30.08,SSE,167,0.0,0.0,80,0.00,,,0.00,Wunderground v.1.15,2013-04-18 06:53:00,
2013-04-18 02:54:00,64.7,58.4,30.08,SSE,167,0.0,0.0,80,0.00,,,0.00,Wunderground v.1.15,2013-04-18 06:54:00,
2013-04-18 02:55:00,64.7,58.4,30.08,SSE,167,0.0,0.0,80,0.00,,,0.00,Wunderground v.1.15,2013-04-18 06:55:00,
2013-04-18 02:57:00,64.6,58.3,30.08,SSE,167,0.0,0.0,80,0.00,,,0.00,Wunderground v.1.15,2013-04-18 06:57:00,
2013-04-18 02:58:00,64.5,58.2,30.08,SSE,167,0.0,0.0,80,0.00,,,0.00,Wunderground v.1.15,2013-04-18 06:58:00,
2013-04-18 02:59:00,64.5,58.2,30.08,SSE,167,0.0,0.0,80,0.00,,,0.00,Wunderground v.1.15,2013-04-18 06:59:00,
2013-04-18 03:00:00,64.4,58.1,30.08,SSE,167,0.0,0.0,80,0.00,,,0.00,Wunderground v.1.15,2013-04-18 07:00:00,
2013-04-18 03:02:00,64.4,58.4,30.08,SSE,167,0.0,0.0,81,0.00,,,0.00,Wunderground v.1.15,2013-04-18 07:02:00,
2013-04-18 03:03:00,64.3,58.3,30.08,SSE,167,0.0,0.0,81,0.00,,,0.00,Wunderground v.1.15,2013-04-18 07:03:00,
2013-04-18 03:04:00,64.3,58.3,30.08,SSE,167,0.0,0.0,81,0.00,,,0.00,Wunderground v.1.15,2013-04-18 07:04:00,
2013-04-18 03:05:00,64.3,58.3,30.08,SSE,167,0.0,0.0,81,0.00,,,0.00,Wunderground v.1.15,2013-04-18 07:05:00,
2013-04-18 03:07:00,64.2,58.2,30.08,SSE,167,0.0,0.0,81,0.00,,,0.00,Wunderground v.1.15,2013-04-18 07:07:00,
2013-04-18 03:08:00,64.2,58.2,30.08,SSE,167,0.0,0.0,81,0.00,,,0.00,Wunderground v.1.15,2013-04-18 07:08:00,
2013-04-18 03:09:00,64.2,58.2,30.08,SSE,168,0.0,0.0,81,0.00,,,0.00,Wunderground v.1.15,2013-04-18 07:09:00,
2013-04-18 03:10:00,64.1,58.1,30.08,SSE,167,0.0,1.0,81,0.00,,,0.00,Wunderground v.1.15,2013-04-18 07:10:00,
2013-04-18 03:12:00,64.0,58.4,30.08,SSE,167,0.0,1.0,82,0.00,,,0.00,Wunderground v.1.15,2013-04-18 07:12:00,
2013-04-18 03:14:00,64.0,58.4,30.08,SSE,167,0.0,1.0,82,0.00,,,0.00,Wunderground v.1.15,2013-04-18 07:14:00,
2013-04-18 03:15:00,63.9,58.3,30.08,SSE,167,0.0,1.0,82,0.00,,,0.00,Wunderground v.1.15,2013-04-18 07:15:00,
2013-04-18 03:17:00,63.8,58.2,30.08,SSE,167,0.0,1.0,82,0.00,,,0.00,Wunderground v.1.15,2013-04-18 07:17:00,
2013-04-18 03:19:00,63.8,58.2,30.08,SSE,167,0.0,1.0,82,0.00,,,0.00,Wunderground v.1.15,2013-04-18 07:19:00,
2013-04-18 03:20:00,63.8,58.2,30.08,SSE,167,0.0,0.0,82,0.00,,,0.00,Wunderground v.1.15,2013-04-18 07:20:00,
2013-04-18 03:23:00,63.7,58.1,30.08,SSE,167,0.0,0.0,82,0.00,,,0.00,Wunderground v.1.15,2013-04-18 07:23:00,
2013-04-18 03:24:00,63.7,58.4,30.08,SSE,167,0.0,0.0,83,0.00,,,0.00,Wunderground v.1.15,2013-04-18 07:24:00,
2013-04-18 03:25:00,63.6,58.3,30.08,SSE,167,0.0,0.0,83,0.00,,,0.00,Wunderground v.1.15,2013-04-18 07:25:00,
2013-04-18 03:28:00,63.5,58.2,30.08,SSE,167,0.0,0.0,83,0.00,,,0.00,Wunderground v.1.15,2013-04-18 07:28:00,
2013-04-18 03:29:00,63.5,58.2,30.08,SSE,167,0.0,0.0,83,0.00,,,0.00,Wunderground v.1.15,2013-04-18 07:29:00,
2013-04-18 03:30:00,63.5,58.2,30.08,SSE,167,0.0,0.0,83,0.00,,,0.00,Wunderground v.1.15,2013-04-18 07:30:00,
2013-04-18 03:33:00,63.4,58.1,30.08,SSE,167,0.0,0.0,83,0.00,,,0.00,Wunderground v.1.15,2013-04-18 07:33:00,
2013-04-18 03:34:00,63.3,58.0,30.08,SSE,167,0.0,0.0,83,0.00,,,0.00,Wunderground v.1.15,2013-04-18 07:34:00,
2013-04-18 03:35:00,63.3,58.4,30.08,SSE,167,0.0,0.0,84,0.00,,,0.00,Wunderground v.1.15,2013-04-18 07:35:00,
2013-04-18 03:39:00,63.2,58.3,30.08,SSE,167,0.0,0.0,84,0.00,,,0.00,Wunderground v.1.15,2013-04-18 07:39:00,
2013-04-18 03:40:00,63.2,58.3,30.08,SSE,167,0.0,0.0,84,0.00,,,0.00,Wunderground v.1.15,2013-04-18 07:40:00,
2013-04-18 03:41:00,63.1,58.2,30.08,SSE,167,0.0,0.0,84,0.00,,,0.00,Wunderground v.1.15,2013-04-18 07:41:00,
2013-04-18 03:44:00,63.0,58.1,30.08,SSE,167,0.0,0.0,84,0.00,,,0.00,Wunderground v.1.15,2013-04-18 07:44:00,
2013-04-18 03:45:00,63.0,58.1,30.08,SSE,167,0.0,0.0,84,0.00,,,0.00,Wunderground v.1.15,2013-04-18 07:45:00,
2013-04-18 03:46:00,62.9,58.0,30.08,SSE,167,0.0,0.0,84,0.00,,,0.00,Wunderground v.1.15,2013-04-18 07:46:00,
2013-04-18 03:49:00,62.8,57.9,30.08,SSE,167,0.0,0.0,84,0.00,,,0.00,Wunderground v.1.15,2013-04-18 07:49:00,
2013-04-18 03:50:00,62.8,58.2,30.08,SSE,167,0.0,0.0,85,0.00,,,0.00,Wunderground v.1.15,2013-04-18 07:50:00,
2013-04-18 03:52:00,62.7,58.1,30.08,SSE,167,0.0,0.0,85,0.00,,,0.00,Wunderground v.1.15,2013-04-18 07:52:00,
2013-04-18 03:54:00,62.6,58.0,30.08,SSE,167,0.0,0.0,85,0.00,,,0.00,Wunderground v.1.15,2013-04-18 07:54:00,
2013-04-18 03:55:00,62.6,58.0,30.09,SSE,167,0.0,0.0,85,0.00,,,0.00,Wunderground v.1.15,2013-04-18 07:55:00,
2013-04-18 03:57:00,62.6,58.0,30.08,SSE,167,0.0,0.0,85,0.00,,,0.00,Wunderground v.1.15,2013-04-18 07:57:00,
2013-04-18 04:00:00,62.4,58.2,30.08,SSE,167,0.0,0.0,86,0.00,,,0.00,Wunderground v.1.15,2013-04-18 08:00:00,
2013-04-18 04:01:00,62.4,58.2,30.08,SSE,167,0.0,0.0,86,0.00,,,0.00,Wunderground v.1.15,2013-04-18 08:01:00,
2013-04-18 04:02:00,62.4,58.2,30.09,SSE,167,0.0,0.0,86,0.00,,,0.00,Wunderground v.1.15,2013-04-18 08:02:00,
2013-04-18 04:05:00,62.2,58.0,30.08,SSE,168,0.0,0.0,86,0.00,,,0.00,Wunderground v.1.15,2013-04-18 08:05:00,
2013-04-18 04:06:00,62.2,58.0,30.09,SSE,167,0.0,0.0,86,0.00,,,0.00,Wunderground v.1.15,2013-04-18 08:06:00,
2013-04-18 04:07:00,62.2,58.0,30.08,SSE,167,0.0,0.0,86,0.00,,,0.00,Wunderground v.1.15,2013-04-18 08:07:00,
2013-04-18 04:10:00,62.0,58.1,30.08,SSE,167,0.0,0.0,87,0.00,,,0.00,Wunderground v.1.15,2013-04-18 08:10:00,
2013-04-18 04:11:00,62.0,58.1,30.08,SSE,167,0.0,0.0,87,0.00,,,0.00,Wunderground v.1.15,2013-04-18 08:11:00,
2013-04-18 04:12:00,62.0,58.1,30.08,SSE,167,0.0,0.0,87,0.00,,,0.00,Wunderground v.1.15,2013-04-18 08:12:00,
2013-04-18 04:15:00,62.0,58.4,30.08,SSE,167,0.0,0.0,88,0.00,,,0.00,Wunderground v.1.15,2013-04-18 08:15:00,
2013-04-18 04:16:00,62.0,58.1,30.08,SSE,167,0.0,0.0,87,0.00,,,0.00,Wunderground v.1.15,2013-04-18 08:16:00,
2013-04-18 04:17:00,62.0,58.1,30.08,SSE,167,0.0,0.0,87,0.00,,,0.00,Wunderground v.1.15,2013-04-18 08:17:00,
2013-04-18 04:18:00,62.0,58.1,30.08,SSE,167,0.0,0.0,87,0.00,,,0.00,Wunderground v.1.15,2013-04-18 08:18:00,
2013-04-18 04:21:00,62.0,58.1,30.08,SSE,167,0.0,0.0,87,0.00,,,0.00,Wunderground v.1.15,2013-04-18 08:21:00,
2013-04-18 04:22:00,62.0,58.1,30.08,SSE,167,0.0,0.0,87,0.00,,,0.00,Wunderground v.1.15,2013-04-18 08:22:00,
2013-04-18 04:23:00,61.9,58.3,30.08,SSE,167,0.0,0.0,88,0.00,,,0.00,Wunderground v.1.15,2013-04-18 08:23:00,
2013-04-18 04:26:00,61.8,58.2,30.08,SSE,167,0.0,0.0,88,0.00,,,0.00,Wunderground v.1.15,2013-04-18 08:26:00,
2013-04-18 04:27:00,61.8,58.2,30.08,SSE,167,0.0,0.0,88,0.00,,,0.00,Wunderground v.1.15,2013-04-18 08:27:00,
2013-04-18 04:28:00,61.8,58.2,30.08,SSE,167,0.0,0.0,88,0.00,,,0.00,Wunderground v.1.15,2013-04-18 08:28:00,
2013-04-18 04:31:00,61.7,58.1,30.08,SSE,167,0.0,0.0,88,0.00,,,0.00,Wunderground v.1.15,2013-04-18 08:31:00,
2013-04-18 04:32:00,61.7,58.1,30.08,SSE,167,0.0,0.0,88,0.00,,,0.00,Wunderground v.1.15,2013-04-18 08:32:00,
2013-04-18 04:33:00,61.7,58.1,30.08,SSE,167,0.0,0.0,88,0.00,,,0.00,Wunderground v.1.15,2013-04-18 08:33:00,
2013-04-18 04:37:00,61.6,58.3,30.08,SSE,167,0.0,0.0,89,0.00,,,0.00,Wunderground v.1.15,2013-04-18 08:37:00,
2013-04-18 04:38:00,61.6,58.3,30.08,SSE,167,0.0,0.0,89,0.00,,,0.00,Wunderground v.1.15,2013-04-18 08:38:00,
2013-04-18 04:39:00,61.6,58.3,30.08,SSE,167,0.0,0.0,89,0.00,,,0.00,Wunderground v.1.15,2013-04-18 08:39:00,
2013-04-18 04:42:00,61.6,58.3,30.09,SSE,167,0.0,0.0,89,0.00,,,0.00,Wunderground v.1.15,2013-04-18 08:42:00,
2013-04-18 04:43:00,61.6,58.3,30.09,SSE,167,0.0,0.0,89,0.00,,,0.00,Wunderground v.1.15,2013-04-18 08:43:00,
2013-04-18 04:44:00,61.6,58.3,30.09,SSE,167,0.0,0.0,89,0.00,,,0.00,Wunderground v.1.15,2013-04-18 08:44:00,
2013-04-18 04:47:00,61.6,58.3,30.09,SSE,167,0.0,0.0,89,0.00,,,0.00,Wunderground v.1.15,2013-04-18 08:47:00,
2013-04-18 04:48:00,61.6,58.3,30.09,SSE,167,0.0,0.0,89,0.00,,,0.00,Wunderground v.1.15,2013-04-18 08:48:00,
2013-04-18 04:49:00,61.6,58.3,30.09,SSE,167,0.0,0.0,89,0.00,,,0.00,Wunderground v.1.15,2013-04-18 08:49:00,
2013-04-18 04:50:00,61.6,58.3,30.09,SSE,167,0.0,0.0,89,0.00,,,0.00,Wunderground v.1.15,2013-04-18 08:50:00,
2013-04-18 04:53:00,61.5,58.2,30.09,SSE,167,0.0,0.0,89,0.00,,,0.00,Wunderground v.1.15,2013-04-18 08:53:00,
2013-04-18 04:54:00,61.5,58.2,30.09,SSE,167,0.0,0.0,89,0.00,,,0.00,Wunderground v.1.15,2013-04-18 08:54:00,
2013-04-18 04:55:00,61.5,58.2,30.09,SSE,167,0.0,0.0,89,0.00,,,0.00,Wunderground v.1.15,2013-04-18 08:55:00,
2013-04-18 04:58:00,61.5,58.2,30.09,SSE,167,0.0,0.0,89,0.00,,,0.00,Wunderground v.1.15,2013-04-18 08:58:00,
2013-04-18 04:59:00,61.4,58.4,30.09,SSE,167,0.0,0.0,90,0.00,,,0.00,Wunderground v.1.15,2013-04-18 08:59:00,
2013-04-18 05:00:00,61.5,58.5,30.09,SSE,167,0.0,0.0,90,0.00,,,0.00,Wunderground v.1.15,2013-04-18 09:00:00,
2013-04-18 05:03:00,61.4,58.4,30.09,SSE,167,0.0,0.0,90,0.00,,,0.00,Wunderground v.1.15,2013-04-18 09:03:00,
2013-04-18 05:04:00,61.4,58.4,30.09,SSE,167,0.0,0.0,90,0.00,,,0.00,Wunderground v.1.15,2013-04-18 09:04:00,
2013-04-18 05:05:00,61.4,58.4,30.09,SSE,167,0.0,0.0,90,0.00,,,0.00,Wunderground v.1.15,2013-04-18 09:05:00,
2013-04-18 05:08:00,61.4,58.4,30.09,SSE,167,0.0,0.0,90,0.00,,,0.00,Wunderground v.1.15,2013-04-18 09:08:00,
2013-04-18 05:09:00,61.4,58.4,30.09,SSE,167,0.0,0.0,90,0.00,,,0.00,Wunderground v.1.15,2013-04-18 09:09:00,
2013-04-18 05:10:00,61.4,58.4,30.09,SSE,167,0.0,0.0,90,0.00,,,0.00,Wunderground v.1.15,2013-04-18 09:10:00,
2013-04-18 05:13:00,61.4,58.4,30.09,SSE,167,0.0,0.0,90,0.00,,,0.00,Wunderground v.1.15,2013-04-18 09:13:00,
2013-04-18 05:14:00,61.4,58.4,30.09,SSE,167,0.0,0.0,90,0.00,,,0.00,Wunderground v.1.15,2013-04-18 09:14:00,
2013-04-18 05:15:00,61.4,58.4,30.09,SSE,167,0.0,0.0,90,0.00,,,0.00,Wunderground v.1.15,2013-04-18 09:15:00,
2013-04-18 05:18:00,61.3,58.3,30.09,SSE,167,0.0,0.0,90,0.00,,,0.00,Wunderground v.1.15,2013-04-18 09:18:00,
2013-04-18 05:19:00,61.3,58.3,30.09,SSE,167,0.0,0.0,90,0.00,,,0.00,Wunderground v.1.15,2013-04-18 09:19:00,
2013-04-18 05:20:00,61.3,58.3,30.09,SSE,167,0.0,0.0,90,0.00,,,0.00,Wunderground v.1.15,2013-04-18 09:20:00,
2013-04-18 05:24:00,61.2,58.2,30.09,SSE,167,0.0,0.0,90,0.00,,,0.00,Wunderground v.1.15,2013-04-18 09:24:00,
2013-04-18 05:25:00,61.2,58.2,30.09,SSE,167,0.0,0.0,90,0.00,,,0.00,Wunderground v.1.15,2013-04-18 09:25:00,
2013-04-18 05:29:00,61.1,58.1,30.09,SSE,167,0.0,0.0,90,0.00,,,0.00,Wunderground v.1.15,2013-04-18 09:29:00,
2013-04-18 05:30:00,61.1,58.1,30.09,SSE,167,0.0,0.0,90,0.00,,,0.00,Wunderground v.1.15,2013-04-18 09:30:00,
2013-04-18 05:31:00,61.0,58.0,30.09,SSE,167,0.0,0.0,90,0.00,,,0.00,Wunderground v.1.15,2013-04-18 09:31:00,
2013-04-18 05:34:00,60.9,58.3,30.10,SSE,167,0.0,0.0,91,0.00,,,0.00,Wunderground v.1.15,2013-04-18 09:34:00,
2013-04-18 05:35:00,60.9,58.3,30.10,SSE,167,0.0,0.0,91,0.00,,,0.00,Wunderground v.1.15,2013-04-18 09:35:00,
2013-04-18 05:36:00,60.9,58.3,30.10,SSE,167,0.0,0.0,91,0.00,,,0.00,Wunderground v.1.15,2013-04-18 09:36:00,
2013-04-18 05:39:00,60.9,58.3,30.10,SSE,167,0.0,0.0,91,0.00,,,0.00,Wunderground v.1.15,2013-04-18 09:39:00,
2013-04-18 05:40:00,60.8,58.2,30.10,SSE,167,0.0,0.0,91,0.00,,,0.00,Wunderground v.1.15,2013-04-18 09:40:00,
2013-04-18 05:41:00,60.8,58.2,30.10,SSE,167,0.0,0.0,91,0.00,,,0.00,Wunderground v.1.15,2013-04-18 09:41:00,
2013-04-18 05:45:00,60.8,58.5,30.09,SSE,167,0.0,0.0,92,0.00,,,0.00,Wunderground v.1.15,2013-04-18 09:45:00,
2013-04-18 05:46:00,60.7,58.4,30.10,SSE,167,0.0,0.0,92,0.00,,,0.00,Wunderground v.1.15,2013-04-18 09:46:00,
2013-04-18 05:50:00,60.7,58.4,30.09,SSE,167,0.0,0.0,92,0.00,,,0.00,Wunderground v.1.15,2013-04-18 09:50:00,
2013-04-18 05:51:00,60.7,58.4,30.09,SSE,167,0.0,0.0,92,0.00,,,0.00,Wunderground v.1.15,2013-04-18 09:51:00,
2013-04-18 05:55:00,60.6,58.3,30.10,SSE,167,0.0,0.0,92,0.00,,,0.00,Wunderground v.1.15,2013-04-18 09:55:00,
2013-04-18 05:56:00,60.6,58.3,30.10,SSE,167,0.0,0.0,92,0.00,,,0.00,Wunderground v.1.15,2013-04-18 09:56:00,
2013-04-18 05:57:00,60.6,58.3,30.10,SSE,167,0.0,0.0,92,0.00,,,0.00,Wunderground v.1.15,2013-04-18 09:57:00,
2013-04-18 06:01:00,60.4,58.1,30.10,SSE,167,0.0,0.0,92,0.00,,,0.00,Wunderground v.1.15,2013-04-18 10:01:00,
2013-04-18 06:02:00,60.4,58.1,30.10,SSE,167,0.0,0.0,92,0.00,,,0.00,Wunderground v.1.15,2013-04-18 10:02:00,
2013-04-18 06:06:00,60.4,58.4,30.10,SSE,167,0.0,0.0,93,0.00,,,0.00,Wunderground v.1.15,2013-04-18 10:06:00,
2013-04-18 06:07:00,60.4,58.4,30.10,SSE,167,0.0,0.0,93,0.00,,,0.00,Wunderground v.1.15,2013-04-18 10:07:00,
2013-04-18 06:08:00,60.4,58.4,30.10,SSE,167,0.0,0.0,93,0.00,,,0.00,Wunderground v.1.15,2013-04-18 10:08:00,
2013-04-18 06:12:00,60.4,58.4,30.10,SSE,167,0.0,0.0,93,0.00,,,0.00,Wunderground v.1.15,2013-04-18 10:12:00,
2013-04-18 06:13:00,60.4,58.4,30.10,SSE,167,0.0,0.0,93,0.00,,,0.00,Wunderground v.1.15,2013-04-18 10:13:00,
2013-04-18 06:17:00,60.4,58.4,30.10,SSE,167,0.0,0.0,93,0.00,,,0.00,Wunderground v.1.15,2013-04-18 10:17:00,
2013-04-18 06:18:00,60.3,58.3,30.10,SSE,167,0.0,0.0,93,0.00,,,0.00,Wunderground v.1.15,2013-04-18 10:18:00,
2013-04-18 06:19:00,60.3,58.3,30.10,SSE,167,0.0,0.0,93,0.00,,,0.00,Wunderground v.1.15,2013-04-18 10:19:00,
2013-04-18 06:22:00,60.3,58.3,30.11,SSE,167,0.0,0.0,93,0.00,,,0.00,Wunderground v.1.15,2013-04-18 10:22:00,
2013-04-18 06:23:00,60.3,58.3,30.11,SSE,167,0.0,0.0,93,0.00,,,0.00,Wunderground v.1.15,2013-04-18 10:23:00,
2013-04-18 06:25:00,60.2,58.2,30.11,SSE,167,0.0,0.0,93,0.00,,,0.00,Wunderground v.1.15,2013-04-18 10:25:00,
2013-04-18 06:27:00,60.2,58.2,30.11,SSE,167,0.0,0.0,93,0.00,,,0.00,Wunderground v.1.15,2013-04-18 10:27:00,
2013-04-18 06:28:00,60.2,58.2,30.11,SSE,167,0.0,0.0,93,0.00,,,0.00,Wunderground v.1.15,2013-04-18 10:28:00,
2013-04-18 06:32:00,60.2,58.5,30.11,SSE,167,0.0,0.0,94,0.00,,,0.00,Wunderground v.1.15,2013-04-18 10:32:00,
2013-04-18 06:33:00,60.2,58.5,30.11,SSE,167,0.0,0.0,94,0.00,,,0.00,Wunderground v.1.15,2013-04-18 10:33:00,
2013-04-18 06:37:00,60.2,58.5,30.11,SSE,167,0.0,0.0,94,0.00,,,0.00,Wunderground v.1.15,2013-04-18 10:37:00,
2013-04-18 06:38:00,60.2,58.5,30.11,SSE,167,0.0,0.0,94,0.00,,,0.00,Wunderground v.1.15,2013-04-18 10:38:00,
2013-04-18 06:42:00,60.1,58.4,30.11,SSE,167,0.0,0.0,94,0.00,,,0.00,Wunderground v.1.15,2013-04-18 10:42:00,
2013-04-18 06:43:00,60.1,58.4,30.11,SSE,167,0.0,0.0,94,0.00,,,0.00,Wunderground v.1.15,2013-04-18 10:43:00,
2013-04-18 06:44:00,60.1,58.4,30.11,SSE,167,0.0,0.0,94,0.00,,,0.00,Wunderground v.1.15,2013-04-18 10:44:00,
2013-04-18 06:47:00,60.1,58.4,30.11,SSE,167,0.0,0.0,94,0.00,,,0.00,Wunderground v.1.15,2013-04-18 10:47:00,
2013-04-18 06:48:00,60.1,58.4,30.11,SSE,167,0.0,0.0,94,0.00,,,0.00,Wunderground v.1.15,2013-04-18 10:48:00,
2013-04-18 06:49:00,60.0,58.3,30.11,SSE,167,0.0,0.0,94,0.00,,,0.00,Wunderground v.1.15,2013-04-18 10:49:00,
2013-04-18 06:52:00,60.0,58.3,30.11,SSE,167,0.0,0.0,94,0.00,,,0.00,Wunderground v.1.15,2013-04-18 10:52:00,
2013-04-18 06:53:00,60.0,58.3,30.11,SSE,167,0.0,0.0,94,0.00,,,0.00,Wunderground v.1.15,2013-04-18 10:53:00,
2013-04-18 06:54:00,60.0,58.3,30.11,SSE,167,0.0,0.0,94,0.00,,,0.00,Wunderground v.1.15,2013-04-18 10:54:00,
2013-04-18 06:58:00,60.1,58.4,30.11,SSE,167,0.0,0.0,94,0.00,,,0.00,Wunderground v.1.15,2013-04-18 10:58:00,
2013-04-18 06:59:00,60.1,58.7,30.11,SSE,167,0.0,0.0,95,0.00,,,0.00,Wunderground v.1.15,2013-04-18 10:59:00,
2013-04-18 07:03:00,60.2,58.5,30.11,SSE,167,0.0,0.0,94,0.00,,,0.00,Wunderground v.1.15,2013-04-18 11:03:00,
2013-04-18 07:04:00,60.2,58.5,30.11,SSE,167,0.0,0.0,94,0.00,,,0.00,Wunderground v.1.15,2013-04-18 11:04:00,
2013-04-18 07:08:00,60.3,58.9,30.11,SSE,167,0.0,0.0,95,0.00,,,0.00,Wunderground v.1.15,2013-04-18 11:08:00,
2013-04-18 07:09:00,60.3,58.9,30.12,SSE,167,0.0,0.0,95,0.00,,,0.00,Wunderground v.1.15,2013-04-18 11:09:00,
2013-04-18 07:13:00,60.5,59.1,30.11,SSE,167,0.0,0.0,95,0.00,,,0.00,Wunderground v.1.15,2013-04-18 11:13:00,
2013-04-18 07:14:00,60.5,59.1,30.11,SSE,167,0.0,0.0,95,0.00,,,0.00,Wunderground v.1.15,2013-04-18 11:14:00,
2013-04-18 07:18:00,60.7,59.3,30.11,SSE,167,0.0,0.0,95,0.00,,,0.00,Wunderground v.1.15,2013-04-18 11:18:00,
2013-04-18 07:19:00,60.7,59.3,30.11,SSE,167,0.0,0.0,95,0.00,,,0.00,Wunderground v.1.15,2013-04-18 11:19:00,
2013-04-18 07:24:00,60.8,59.4,30.12,SSE,167,0.0,0.0,95,0.00,,,0.00,Wunderground v.1.15,2013-04-18 11:24:00,
2013-04-18 07:25:00,60.8,59.4,30.12,SSE,167,0.0,0.0,95,0.00,,,0.00,Wunderground v.1.15,2013-04-18 11:25:00,
2013-04-18 07:29:00,60.9,59.5,30.12,SSE,167,0.0,0.0,95,0.00,,,0.00,Wunderground v.1.15,2013-04-18 11:29:00,
2013-04-18 07:30:00,60.9,59.5,30.12,SSE,167,0.0,0.0,95,0.00,,,0.00,Wunderground v.1.15,2013-04-18 11:30:00,
2013-04-18 07:34:00,61.1,59.7,30.12,SSE,167,0.0,0.0,95,0.00,,,0.00,Wunderground v.1.15,2013-04-18 11:34:00,
2013-04-18 07:35:00,61.1,59.7,30.12,SSE,167,0.0,0.0,95,0.00,,,0.00,Wunderground v.1.15,2013-04-18 11:35:00,
2013-04-18 07:39:00,61.2,59.8,30.12,SSE,167,0.0,0.0,95,0.00,,,0.00,Wunderground v.1.15,2013-04-18 11:39:00,
2013-04-18 07:40:00,61.3,59.9,30.12,SSE,167,0.0,0.0,95,0.00,,,0.00,Wunderground v.1.15,2013-04-18 11:40:00,
2013-04-18 07:41:00,61.3,59.9,30.12,SSE,167,0.0,0.0,95,0.00,,,0.00,Wunderground v.1.15,2013-04-18 11:41:00,
2013-04-18 07:44:00,61.4,60.0,30.12,SSE,167,0.0,0.0,95,0.00,,,0.00,Wunderground v.1.15,2013-04-18 11:44:00,
2013-04-18 07:45:00,61.4,60.0,30.12,SSE,167,0.0,1.0,95,0.00,,,0.00,Wunderground v.1.15,2013-04-18 11:45:00,
2013-04-18 07:46:00,61.5,60.1,30.12,SSE,167,0.0,1.0,95,0.00,,,0.00,Wunderground v.1.15,2013-04-18 11:46:00,
2013-04-18 07:47:00,61.6,60.2,30.12,SSE,167,0.0,1.0,95,0.00,,,0.00,Wunderground v.1.15,2013-04-18 11:47:00,
2013-04-18 07:49:00,61.7,60.3,30.12,SSE,167,0.0,1.0,95,0.00,,,0.00,Wunderground v.1.15,2013-04-18 11:49:00,
2013-04-18 07:50:00,61.7,60.3,30.12,SSE,167,0.0,0.0,95,0.00,,,0.00,Wunderground v.1.15,2013-04-18 11:50:00,
2013-04-18 07:51:00,61.9,60.5,30.12,SSE,167,0.0,0.0,95,0.00,,,0.00,Wunderground v.1.15,2013-04-18 11:51:00,
2013-04-18 07:52:00,61.9,60.5,30.12,SSE,167,0.0,0.0,95,0.00,,,0.00,Wunderground v.1.15,2013-04-18 11:52:00,
2013-04-18 07:55:00,62.1,60.7,30.12,SSE,167,0.0,0.0,95,0.00,,,0.00,Wunderground v.1.15,2013-04-18 11:55:00,
2013-04-18 07:56:00,62.2,60.8,30.12,SSE,167,0.0,0.0,95,0.00,,,0.00,Wunderground v.1.15,2013-04-18 11:56:00,
2013-04-18 07:57:00,62.2,60.8,30.12,SSE,167,0.0,0.0,95,0.00,,,0.00,Wunderground v.1.15,2013-04-18 11:57:00,
2013-04-18 08:00:00,62.4,60.9,30.12,SSE,167,0.0,0.0,95,0.00,,,0.00,Wunderground v.1.15,2013-04-18 12:00:00,
2013-04-18 08:02:00,62.6,60.8,30.12,SSE,167,0.0,0.0,94,0.00,,,0.00,Wunderground v.1.15,2013-04-18 12:02:00,
2013-04-18 08:05:00,62.9,61.1,30.13,SSE,167,0.0,0.0,94,0.00,,,0.00,Wunderground v.1.15,2013-04-18 12:05:00,
2013-04-18 08:06:00,62.9,61.1,30.13,SSE,167,0.0,0.0,94,0.00,,,0.00,Wunderground v.1.15,2013-04-18 12:06:00,
2013-04-18 08:07:00,63.1,61.3,30.13,SW,215,1.0,1.0,94,0.00,,,0.00,Wunderground v.1.15,2013-04-18 12:07:00,
2013-04-18 08:10:00,63.3,61.5,30.12,SW,215,0.0,0.0,94,0.00,,,0.00,Wunderground v.1.15,2013-04-18 12:10:00,
2013-04-18 08:11:00,63.4,61.6,30.13,SW,215,0.0,0.0,94,0.00,,,0.00,Wunderground v.1.15,2013-04-18 12:11:00,
2013-04-18 08:12:00,63.5,61.7,30.12,SW,215,1.0,1.0,94,0.00,,,0.00,Wunderground v.1.15,2013-04-18 12:12:00,
2013-04-18 08:13:00,63.6,61.8,30.13,SSW,211,0.0,1.0,94,0.00,,,0.00,Wunderground v.1.15,2013-04-18 12:13:00,
2013-04-18 08:15:00,63.8,61.7,30.13,SW,217,0.0,2.0,93,0.00,,,0.00,Wunderground v.1.15,2013-04-18 12:15:00,
2013-04-18 08:16:00,63.9,61.8,30.13,SW,217,0.0,2.0,93,0.00,,,0.00,Wunderground v.1.15,2013-04-18 12:16:00,
2013-04-18 08:17:00,64.0,61.9,30.13,SW,217,0.0,2.0,93,0.00,,,0.00,Wunderground v.1.15,2013-04-18 12:17:00,
2013-04-18 08:18:00,64.0,61.9,30.13,SW,217,0.0,2.0,93,0.00,,,0.00,Wunderground v.1.15,2013-04-18 12:18:00,
2013-04-18 08:20:00,64.3,61.9,30.13,SSW,210,0.0,1.0,92,0.00,,,0.00,Wunderground v.1.15,2013-04-18 12:20:00,
2013-04-18 08:22:00,64.4,62.0,30.13,SSW,210,1.0,1.0,92,0.00,,,0.00,Wunderground v.1.15,2013-04-18 12:22:00,
2013-04-18 08:23:00,64.6,62.2,30.13,SSW,194,0.0,1.0,92,0.00,,,0.00,Wunderground v.1.15,2013-04-18 12:23:00,
2013-04-18 08:25:00,64.9,62.2,30.13,SSW,194,0.0,1.0,91,0.00,,,0.00,Wunderground v.1.15,2013-04-18 12:25:00,
2013-04-18 08:27:00,65.0,62.3,30.13,South,181,0.0,1.0,91,0.00,,,0.00,Wunderground v.1.15,2013-04-18 12:27:00,
2013-04-18 08:28:00,65.1,62.1,30.13,SW,217,1.0,2.0,90,0.00,,,0.00,Wunderground v.1.15,2013-04-18 12:28:00,
2013-04-18 08:30:00,65.3,62.3,30.13,SW,217,0.0,0.0,90,0.00,,,0.00,Wunderground v.1.15,2013-04-18 12:30:00,
2013-04-18 08:31:00,65.3,62.3,30.13,SW,217,0.0,0.0,90,0.00,,,0.00,Wunderground v.1.15,2013-04-18 12:31:00,
2013-04-18 08:32:00,65.4,62.4,30.13,SW,217,0.0,0.0,90,0.00,,,0.00,Wunderground v.1.15,2013-04-18 12:32:00,
2013-04-18 08:33:00,65.5,62.5,30.13,SW,217,0.0,0.0,90,0.00,,,0.00,Wunderground v.1.15,2013-04-18 12:33:00,
2013-04-18 08:36:00,65.7,62.7,30.13,SW,217,0.0,0.0,90,0.00,,,0.00,Wunderground v.1.15,2013-04-18 12:36:00,
2013-04-18 08:37:00,65.8,62.8,30.13,SW,217,0.0,0.0,90,0.00,,,0.00,Wunderground v.1.15,2013-04-18 12:37:00,
2013-04-18 08:38:00,65.9,62.6,30.13,SW,217,0.0,0.0,89,0.00,,,0.00,Wunderground v.1.15,2013-04-18 12:38:00,
2013-04-18 08:41:00,66.1,62.8,30.13,SW,217,0.0,1.0,89,0.00,,,0.00,Wunderground v.1.15,2013-04-18 12:41:00,
2013-04-18 08:42:00,66.2,62.9,30.13,SW,217,0.0,1.0,89,0.00,,,0.00,Wunderground v.1.15,2013-04-18 12:42:00,
2013-04-18 08:43:00,66.2,62.9,30.13,SW,217,0.0,1.0,89,0.00,,,0.00,Wunderground v.1.15,2013-04-18 12:43:00,
2013-04-18 08:47:00,66.6,62.9,30.13,SW,229,2.0,2.0,88,0.00,,,0.00,Wunderground v.1.15,2013-04-18 12:47:00,
2013-04-18 08:48:00,66.6,62.9,30.13,SSW,200,1.0,2.0,88,0.00,,,0.00,Wunderground v.1.15,2013-04-18 12:48:00,
2013-04-18 08:53:00,66.9,62.9,30.14,SSW,204,2.0,3.0,87,0.00,,,0.00,Wunderground v.1.15,2013-04-18 12:53:00,
2013-04-18 08:54:00,67.0,62.7,30.14,SSW,195,1.0,3.0,86,0.00,,,0.00,Wunderground v.1.15,2013-04-18 12:54:00,
2013-04-18 08:58:00,67.2,62.9,30.14,SSW,204,0.0,3.0,86,0.00,,,0.00,Wunderground v.1.15,2013-04-18 12:58:00,
2013-04-18 08:59:00,67.2,62.9,30.14,SSW,207,1.0,3.0,86,0.00,,,0.00,Wunderground v.1.15,2013-04-18 12:59:00,
2013-04-18 09:03:00,67.5,62.8,30.14,SSW,200,3.0,3.0,85,0.00,,,0.00,Wunderground v.1.15,2013-04-18 13:03:00,
2013-04-18 09:04:00,67.5,62.8,30.14,SSW,205,1.0,3.0,85,0.00,,,0.00,Wunderground v.1.15,2013-04-18 13:04:00,
2013-04-18 09:08:00,67.5,62.8,30.14,SSW,212,0.0,3.0,85,0.00,,,0.00,Wunderground v.1.15,2013-04-18 13:08:00,
2013-04-18 09:09:00,67.5,62.8,30.14,South,190,1.0,3.0,85,0.00,,,0.00,Wunderground v.1.15,2013-04-18 13:09:00,
2013-04-18 09:10:00,67.5,62.8,30.14,SSW,200,1.0,2.0,85,0.00,,,0.00,Wunderground v.1.15,2013-04-18 13:10:00,
2013-04-18 09:13:00,67.5,62.8,30.14,SSW,195,0.0,2.0,85,0.00,,,0.00,Wunderground v.1.15,2013-04-18 13:13:00,
2013-04-18 09:14:00,67.5,62.8,30.14,SSW,195,0.0,2.0,85,0.00,,,0.00,Wunderground v.1.15,2013-04-18 13:14:00,
2013-04-18 09:15:00,67.5,62.8,30.14,SW,214,1.0,2.0,85,0.00,,,0.00,Wunderground v.1.15,2013-04-18 13:15:00,
2013-04-18 09:18:00,67.6,62.9,30.13,SW,216,1.0,3.0,85,0.00,,,0.00,Wunderground v.1.15,2013-04-18 13:18:00,
2013-04-18 09:19:00,67.6,62.9,30.13,SW,219,1.0,3.0,85,0.00,,,0.00,Wunderground v.1.15,2013-04-18 13:19:00,
2013-04-18 09:20:00,67.6,62.9,30.13,SSW,210,2.0,2.0,85,0.00,,,0.00,Wunderground v.1.15,2013-04-18 13:20:00,
2013-04-18 09:22:00,67.7,63.0,30.13,SSW,200,0.0,3.0,85,0.00,,,0.00,Wunderground v.1.15,2013-04-18 13:22:00,
2013-04-18 09:24:00,67.8,63.1,30.13,SSW,205,1.0,3.0,85,0.00,,,0.00,Wunderground v.1.15,2013-04-18 13:24:00,
2013-04-18 09:25:00,67.8,63.1,30.13,SSW,210,2.0,3.0,85,0.00,,,0.00,Wunderground v.1.15,2013-04-18 13:25:00,
2013-04-18 09:27:00,67.8,62.8,30.13,SE,143,1.0,3.0,84,0.00,,,0.00,Wunderground v.1.15,2013-04-18 13:27:00,
2013-04-18 09:29:00,67.8,62.8,30.13,SSW,207,0.0,3.0,84,0.00,,,0.00,Wunderground v.1.15,2013-04-18 13:29:00,
2013-04-18 09:30:00,67.8,62.8,30.13,SSW,207,1.0,3.0,84,0.00,,,0.00,Wunderground v.1.15,2013-04-18 13:30:00,
2013-04-18 09:32:00,67.9,62.9,30.14,SSW,208,3.0,3.0,84,0.00,,,0.00,Wunderground v.1.15,2013-04-18 13:32:00,
2013-04-18 09:34:00,67.9,62.9,30.14,SSW,208,2.0,4.0,84,0.00,,,0.00,Wunderground v.1.15,2013-04-18 13:34:00,
2013-04-18 09:35:00,67.9,62.9,30.14,SSW,208,2.0,4.0,84,0.00,,,0.00,Wunderground v.1.15,2013-04-18 13:35:00,
2013-04-18 09:37:00,67.9,62.5,30.14,SSW,193,1.0,4.0,83,0.00,,,0.00,Wunderground v.1.15,2013-04-18 13:37:00,
2013-04-18 09:40:00,68.0,63.0,30.14,SE,144,0.0,2.0,84,0.00,,,0.00,Wunderground v.1.15,2013-04-18 13:40:00,
2013-04-18 09:43:00,68.1,63.1,30.14,SW,215,0.0,2.0,84,0.00,,,0.00,Wunderground v.1.15,2013-04-18 13:43:00,
2013-04-18 09:45:00,68.2,62.8,30.13,SSW,205,0.0,2.0,83,0.00,,,0.00,Wunderground v.1.15,2013-04-18 13:45:00,
2013-04-18 09:48:00,68.4,63.0,30.14,SSW,205,1.0,2.0,83,0.00,,,0.00,Wunderground v.1.15,2013-04-18 13:48:00,
2013-04-18 09:50:00,68.5,62.8,30.14,SSW,205,0.0,0.0,82,0.00,,,0.00,Wunderground v.1.15,2013-04-18 13:50:00,
2013-04-18 09:51:00,68.6,62.9,30.14,SW,215,1.0,2.0,82,0.00,,,0.00,Wunderground v.1.15,2013-04-18 13:51:00,
2013-04-18 09:53:00,68.7,63.0,30.14,SSW,209,0.0,3.0,82,0.00,,,0.00,Wunderground v.1.15,2013-04-18 13:53:00,
2013-04-18 09:55:00,68.9,62.8,30.14,SE,146,1.0,3.0,81,0.00,,,0.00,Wunderground v.1.15,2013-04-18 13:55:00,
2013-04-18 09:56:00,69.0,62.9,30.14,SE,145,0.0,3.0,81,0.00,,,0.00,Wunderground v.1.15,2013-04-18 13:56:00,
2013-04-18 09:57:00,69.0,62.9,30.14,SE,146,1.0,3.0,81,0.00,,,0.00,Wunderground v.1.15,2013-04-18 13:57:00,
2013-04-18 09:58:00,69.1,63.0,30.14,SSE,149,1.0,3.0,81,0.00,,,0.00,Wunderground v.1.15,2013-04-18 13:58:00,
2013-04-18 10:00:00,69.2,63.1,30.14,SSE,150,0.0,1.0,81,0.00,,,0.00,Wunderground v.1.15,2013-04-18 14:00:00,
2013-04-18 10:01:00,69.3,63.2,30.14,SSE,150,1.0,1.0,81,0.00,,,0.00,Wunderground v.1.15,2013-04-18 14:01:00,
2013-04-18 10:02:00,69.3,62.9,30.14,SSE,149,1.0,1.0,80,0.00,,,0.00,Wunderground v.1.15,2013-04-18 14:02:00,
2013-04-18 10:04:00,69.5,63.1,30.14,SSW,198,1.0,2.0,80,0.00,,,0.00,Wunderground v.1.15,2013-04-18 14:04:00,
2013-04-18 10:05:00,69.6,62.8,30.14,SSW,192,0.0,2.0,79,0.00,,,0.00,Wunderground v.1.15,2013-04-18 14:05:00,
2013-04-18 10:07:00,69.7,62.9,30.14,SE,146,1.0,2.0,79,0.00,,,0.00,Wunderground v.1.15,2013-04-18 14:07:00,
2013-04-18 10:09:00,69.8,63.0,30.14,SE,146,0.0,2.0,79,0.00,,,0.00,Wunderground v.1.15,2013-04-18 14:09:00,
2013-04-18 10:10:00,69.9,62.7,30.14,SE,146,0.0,0.0,78,0.00,,,0.00,Wunderground v.1.15,2013-04-18 14:10:00,
2013-04-18 10:12:00,70.1,62.9,30.14,South,170,0.0,0.0,78,0.00,,,0.00,Wunderground v.1.15,2013-04-18 14:12:00,
2013-04-18 10:14:00,70.3,63.1,30.14,SW,214,1.0,2.0,78,0.00,,,0.00,Wunderground v.1.15,2013-04-18 14:14:00,
2013-04-18 10:15:00,70.4,62.1,30.14,SSW,204,3.0,4.0,75,0.00,,,0.00,Wunderground v.1.15,2013-04-18 14:15:00,
2013-04-18 10:16:00,70.4,62.1,30.14,SSW,212,2.0,4.0,75,0.00,,,0.00,Wunderground v.1.15,2013-04-18 14:16:00,
2013-04-18 10:18:00,70.4,61.7,30.14,SSW,198,3.0,4.0,74,0.00,,,0.00,Wunderground v.1.15,2013-04-18 14:18:00,
2013-04-18 10:19:00,70.4,62.1,30.14,SSW,197,0.0,4.0,75,0.00,,,0.00,Wunderground v.1.15,2013-04-18 14:19:00,
2013-04-18 10:20:00,70.4,62.1,30.14,SSW,208,2.0,3.0,75,0.00,,,0.00,Wunderground v.1.15,2013-04-18 14:20:00,
2013-04-18 10:22:00,70.5,61.8,30.14,SSW,210,0.0,3.0,74,0.00,,,0.00,Wunderground v.1.15,2013-04-18 14:22:00,
2013-04-18 10:23:00,70.6,62.3,30.14,SSW,205,0.0,3.0,75,0.00,,,0.00,Wunderground v.1.15,2013-04-18 14:23:00,
2013-04-18 10:24:00,70.6,62.3,30.14,SW,217,1.0,3.0,75,0.00,,,0.00,Wunderground v.1.15,2013-04-18 14:24:00,
2013-04-18 10:26:00,70.7,62.0,30.14,SSE,152,1.0,3.0,74,0.00,,,0.00,Wunderground v.1.15,2013-04-18 14:26:00,
2013-04-18 10:27:00,70.7,61.6,30.14,SSE,152,1.0,3.0,73,0.00,,,0.00,Wunderground v.1.15,2013-04-18 14:27:00,
2013-04-18 10:28:00,70.7,61.6,30.14,SSE,153,1.0,3.0,73,0.00,,,0.00,Wunderground v.1.15,2013-04-18 14:28:00,
2013-04-18 10:29:00,70.7,61.6,30.14,SE,135,1.0,3.0,73,0.00,,,0.00,Wunderground v.1.15,2013-04-18 14:29:00,
2013-04-18 10:31:00,70.7,61.6,30.14,SSE,148,1.0,3.0,73,0.00,,,0.00,Wunderground v.1.15,2013-04-18 14:31:00,
2013-04-18 10:33:00,70.7,61.6,30.14,ESE,110,1.0,3.0,73,0.00,,,0.00,Wunderground v.1.15,2013-04-18 14:33:00,
2013-04-18 10:35:00,70.8,61.7,30.14,South,169,1.0,3.0,73,0.00,,,0.00,Wunderground v.1.15,2013-04-18 14:35:00,
2013-04-18 10:36:00,70.8,61.7,30.14,SE,146,2.0,3.0,73,0.00,,,0.00,Wunderground v.1.15,2013-04-18 14:36:00,
2013-04-18 10:38:00,70.8,61.7,30.14,SSE,152,0.0,3.0,73,0.00,,,0.00,Wunderground v.1.15,2013-04-18 14:38:00,
2013-04-18 10:40:00,70.9,61.8,30.14,SSE,148,1.0,1.0,73,0.00,,,0.00,Wunderground v.1.15,2013-04-18 14:40:00,
2013-04-18 10:42:00,71.0,61.9,30.14,ESE,105,2.0,2.0,73,0.00,,,0.00,Wunderground v.1.15,2013-04-18 14:42:00,
2013-04-18 10:43:00,71.0,61.5,30.14,South,190,0.0,2.0,72,0.00,,,0.00,Wunderground v.1.15,2013-04-18 14:43:00,
2013-04-18 10:44:00,71.1,61.6,30.14,South,190,0.0,2.0,72,0.00,,,0.00,Wunderground v.1.15,2013-04-18 14:44:00,
2013-04-18 10:45:00,71.1,62.0,30.14,ESE,121,1.0,2.0,73,0.00,,,0.00,Wunderground v.1.15,2013-04-18 14:45:00,
2013-04-18 10:47:00,71.2,61.7,30.13,SSE,151,2.0,2.0,72,0.00,,,0.00,Wunderground v.1.15,2013-04-18 14:47:00,
2013-04-18 10:48:00,71.3,61.8,30.13,SSE,159,0.0,2.0,72,0.00,,,0.00,Wunderground v.1.15,2013-04-18 14:48:00,
2013-04-18 10:49:00,71.3,62.2,30.13,SSE,159,0.0,2.0,73,0.00,,,0.00,Wunderground v.1.15,2013-04-18 14:49:00,
2013-04-18 10:50:00,71.4,61.9,30.13,SSE,156,0.0,1.0,72,0.00,,,0.00,Wunderground v.1.15,2013-04-18 14:50:00,
2013-04-18 10:52:00,71.5,62.0,30.13,SE,143,1.0,1.0,72,0.00,,,0.00,Wunderground v.1.15,2013-04-18 14:52:00,
2013-04-18 10:53:00,71.6,61.7,30.13,ESE,118,1.0,2.0,71,0.00,,,0.00,Wunderground v.1.15,2013-04-18 14:53:00,
2013-04-18 10:54:00,71.6,61.7,30.13,ESE,123,0.0,2.0,71,0.00,,,0.00,Wunderground v.1.15,2013-04-18 14:54:00,
2013-04-18 10:56:00,71.8,61.9,30.13,East,99,2.0,2.0,71,0.00,,,0.00,Wunderground v.1.15,2013-04-18 14:56:00,
2013-04-18 10:57:00,71.9,62.0,30.13,East,99,0.0,2.0,71,0.00,,,0.00,Wunderground v.1.15,2013-04-18 14:57:00,
2013-04-18 10:58:00,72.1,62.2,30.13,SE,141,1.0,2.0,71,0.00,,,0.00,Wunderground v.1.15,2013-04-18 14:58:00,
2013-04-18 10:59:00,72.1,62.2,30.13,SSE,165,1.0,2.0,71,0.00,,,0.00,Wunderground v.1.15,2013-04-18 14:59:00,
2013-04-18 11:01:00,72.3,62.0,30.13,South,174,0.0,1.0,70,0.00,,,0.00,Wunderground v.1.15,2013-04-18 15:01:00,
2013-04-18 11:02:00,72.3,62.0,30.13,South,173,0.0,1.0,70,0.00,,,0.00,Wunderground v.1.15,2013-04-18 15:02:00,
2013-04-18 11:03:00,72.4,62.1,30.13,SE,134,1.0,1.0,70,0.00,,,0.00,Wunderground v.1.15,2013-04-18 15:03:00,
2013-04-18 11:04:00,72.5,62.2,30.13,SE,124,1.0,1.0,70,0.00,,,0.00,Wunderground v.1.15,2013-04-18 15:04:00,
2013-04-18 11:07:00,72.6,61.8,30.12,ESE,117,2.0,2.0,69,0.00,,,0.00,Wunderground v.1.15,2013-04-18 15:07:00,
2013-04-18 11:08:00,72.7,61.9,30.12,ESE,103,3.0,3.0,69,0.00,,,0.00,Wunderground v.1.15,2013-04-18 15:08:00,
2013-04-18 11:09:00,72.7,61.5,30.12,ESE,110,1.0,3.0,68,0.00,,,0.00,Wunderground v.1.15,2013-04-18 15:09:00,
2013-04-18 11:10:00,72.7,61.5,30.12,South,186,1.0,3.0,68,0.00,,,0.00,Wunderground v.1.15,2013-04-18 15:10:00,
2013-04-18 11:12:00,72.9,61.7,30.12,South,187,0.0,1.0,68,0.00,,,0.00,Wunderground v.1.15,2013-04-18 15:12:00,
2013-04-18 11:13:00,73.0,62.2,30.12,SSE,150,1.0,1.0,69,0.00,,,0.00,Wunderground v.1.15,2013-04-18 15:13:00,
2013-04-18 11:14:00,73.1,62.3,30.12,SSE,149,0.0,1.0,69,0.00,,,0.00,Wunderground v.1.15,2013-04-18 15:14:00,
2013-04-18 11:15:00,73.1,62.3,30.12,SSE,150,1.0,1.0,69,0.00,,,0.00,Wunderground v.1.15,2013-04-18 15:15:00,
2013-04-18 11:17:00,73.4,62.2,30.12,SE,129,1.0,3.0,68,0.00,,,0.00,Wunderground v.1.15,2013-04-18 15:17:00,
2013-04-18 11:19:00,73.5,61.9,30.13,SE,129,0.0,3.0,67,0.00,,,0.00,Wunderground v.1.15,2013-04-18 15:19:00,
2013-04-18 11:20:00,73.5,61.9,30.13,SSE,152,0.0,3.0,67,0.00,,,0.00,Wunderground v.1.15,2013-04-18 15:20:00,
2013-04-18 11:22:00,73.6,62.0,30.13,SE,143,1.0,1.0,67,0.00,,,0.00,Wunderground v.1.15,2013-04-18 15:22:00,
2013-04-18 11:24:00,73.5,61.9,30.13,ESE,105,2.0,3.0,67,0.00,,,0.00,Wunderground v.1.15,2013-04-18 15:24:00,
2013-04-18 11:25:00,73.5,61.9,30.13,SSE,168,0.0,3.0,67,0.00,,,0.00,Wunderground v.1.15,2013-04-18 15:25:00,
2013-04-18 11:27:00,73.6,62.0,30.13,ESE,120,0.0,3.0,67,0.00,,,0.00,Wunderground v.1.15,2013-04-18 15:27:00,
2013-04-18 11:29:00,73.6,62.0,30.13,SE,138,1.0,3.0,67,0.00,,,0.00,Wunderground v.1.15,2013-04-18 15:29:00,
2013-04-18 11:30:00,73.6,62.0,30.13,SSE,149,2.0,3.0,67,0.00,,,0.00,Wunderground v.1.15,2013-04-18 15:30:00,
2013-04-18 11:32:00,73.7,61.6,30.12,South,191,1.0,3.0,66,0.00,,,0.00,Wunderground v.1.15,2013-04-18 15:32:00,
2013-04-18 11:34:00,73.7,61.2,30.12,SSE,167,1.0,3.0,65,0.00,,,0.00,Wunderground v.1.15,2013-04-18 15:34:00,
2013-04-18 11:35:00,73.7,61.2,30.12,SSE,160,1.0,3.0,65,0.00,,,0.00,Wunderground v.1.15,2013-04-18 15:35:00,
2013-04-18 11:36:00,73.7,60.8,30.12,SE,127,1.0,3.0,64,0.00,,,0.00,Wunderground v.1.15,2013-04-18 15:36:00,
2013-04-18 11:37:00,73.7,61.2,30.12,ESE,114,2.0,3.0,65,0.00,,,0.00,Wunderground v.1.15,2013-04-18 15:37:00,
2013-04-18 11:40:00,73.7,61.2,30.12,SSE,168,2.0,3.0,65,0.00,,,0.00,Wunderground v.1.15,2013-04-18 15:40:00,
2013-04-18 11:41:00,73.7,61.2,30.12,East,96,3.0,3.0,65,0.00,,,0.00,Wunderground v.1.15,2013-04-18 15:41:00,
2013-04-18 11:42:00,73.7,61.2,30.12,ESE,123,1.0,3.0,65,0.00,,,0.00,Wunderground v.1.15,2013-04-18 15:42:00,
2013-04-18 11:43:00,73.7,61.2,30.12,SE,142,1.0,3.0,65,0.00,,,0.00,Wunderground v.1.15,2013-04-18 15:43:00,
2013-04-18 11:45:00,73.7,61.6,30.12,SSE,153,1.0,4.0,66,0.00,,,0.00,Wunderground v.1.15,2013-04-18 15:45:00,
2013-04-18 11:47:00,73.6,61.5,30.12,SSW,201,1.0,5.0,66,0.00,,,0.00,Wunderground v.1.15,2013-04-18 15:47:00,
2013-04-18 11:48:00,73.5,61.4,30.12,SW,224,1.0,5.0,66,0.00,,,0.00,Wunderground v.1.15,2013-04-18 15:48:00,
2013-04-18 11:51:00,73.3,61.7,30.12,South,187,0.0,3.0,67,0.00,,,0.00,Wunderground v.1.15,2013-04-18 15:51:00,
2013-04-18 11:52:00,73.3,61.7,30.12,SSW,202,0.0,3.0,67,0.00,,,0.00,Wunderground v.1.15,2013-04-18 15:52:00,
2013-04-18 11:53:00,73.3,61.7,30.12,South,183,1.0,3.0,67,0.00,,,0.00,Wunderground v.1.15,2013-04-18 15:53:00,
2013-04-18 11:56:00,73.6,62.0,30.12,SW,219,2.0,3.0,67,0.00,,,0.00,Wunderground v.1.15,2013-04-18 15:56:00,
2013-04-18 11:58:00,73.7,62.5,30.12,SSW,204,1.0,3.0,68,0.00,,,0.00,Wunderground v.1.15,2013-04-18 15:58:00,
2013-04-18 12:02:00,74.1,62.4,30.12,SSW,193,0.0,2.0,67,0.00,,,0.00,Wunderground v.1.15,2013-04-18 16:02:00,
2013-04-18 12:03:00,74.2,62.5,30.12,SSE,149,1.0,2.0,67,0.00,,,0.00,Wunderground v.1.15,2013-04-18 16:03:00,
2013-04-18 12:07:00,74.2,62.1,30.12,SSW,210,4.0,5.0,66,0.00,,,0.00,Wunderground v.1.15,2013-04-18 16:07:00,
2013-04-18 12:08:00,74.2,62.1,30.12,SSW,211,1.0,5.0,66,0.00,,,0.00,Wunderground v.1.15,2013-04-18 16:08:00,
2013-04-18 12:09:00,74.2,62.1,30.12,SSE,156,1.0,5.0,66,0.00,,,0.00,Wunderground v.1.15,2013-04-18 16:09:00,
2013-04-18 12:12:00,74.3,62.2,30.12,SSE,160,0.0,4.0,66,0.00,,,0.00,Wunderground v.1.15,2013-04-18 16:12:00,
2013-04-18 12:13:00,74.4,62.3,30.11,ESE,110,1.0,4.0,66,0.00,,,0.00,Wunderground v.1.15,2013-04-18 16:13:00,
2013-04-18 12:14:00,74.4,62.3,30.11,ESE,110,1.0,4.0,66,0.00,,,0.00,Wunderground v.1.15,2013-04-18 16:14:00,
2013-04-18 12:17:00,74.4,61.9,30.11,ESE,104,1.0,4.0,65,0.00,,,0.00,Wunderground v.1.15,2013-04-18 16:17:00,
2013-04-18 12:18:00,74.5,62.0,30.11,SSW,212,0.0,4.0,65,0.00,,,0.00,Wunderground v.1.15,2013-04-18 16:18:00,
2013-04-18 12:19:00,74.5,62.0,30.11,SSW,212,0.0,4.0,65,0.00,,,0.00,Wunderground v.1.15,2013-04-18 16:19:00,
2013-04-18 12:23:00,74.7,60.8,30.11,SSW,193,1.0,2.0,62,0.00,,,0.00,Wunderground v.1.15,2013-04-18 16:23:00,
2013-04-18 12:24:00,74.7,60.8,30.11,South,184,0.0,2.0,62,0.00,,,0.00,Wunderground v.1.15,2013-04-18 16:24:00,
2013-04-18 12:29:00,74.5,59.7,30.11,ESE,108,2.0,3.0,60,0.00,,,0.00,Wunderground v.1.15,2013-04-18 16:29:00,
2013-04-18 12:34:00,74.2,58.5,30.11,SSE,165,1.0,3.0,58,0.00,,,0.00,Wunderground v.1.15,2013-04-18 16:34:00,
2013-04-18 12:39:00,74.3,58.6,30.11,SW,215,0.0,3.0,58,0.00,,,0.00,Wunderground v.1.15,2013-04-18 16:39:00,
2013-04-18 12:40:00,74.3,59.0,30.11,SSE,164,1.0,3.0,59,0.00,,,0.00,Wunderground v.1.15,2013-04-18 16:40:00,
2013-04-18 12:44:00,74.6,59.8,30.10,South,179,1.0,2.0,60,0.00,,,0.00,Wunderground v.1.15,2013-04-18 16:44:00,
2013-04-18 12:45:00,74.6,60.3,30.10,South,181,1.0,2.0,61,0.00,,,0.00,Wunderground v.1.15,2013-04-18 16:45:00,
2013-04-18 12:49:00,75.2,59.9,30.10,SSE,148,1.0,4.0,59,0.00,,,0.00,Wunderground v.1.15,2013-04-18 16:49:00,
2013-04-18 12:50:00,75.2,59.9,30.10,South,174,2.0,4.0,59,0.00,,,0.00,Wunderground v.1.15,2013-04-18 16:50:00,
2013-04-18 12:54:00,75.4,60.5,30.10,SSW,193,0.0,2.0,60,0.00,,,0.00,Wunderground v.1.15,2013-04-18 16:54:00,
2013-04-18 12:55:00,75.5,60.6,30.10,SSW,193,0.0,2.0,60,0.00,,,0.00,Wunderground v.1.15,2013-04-18 16:55:00,
2013-04-18 12:56:00,75.6,60.7,30.10,SSW,197,1.0,2.0,60,0.00,,,0.00,Wunderground v.1.15,2013-04-18 16:56:00,
2013-04-18 13:00:00,76.2,60.8,30.10,SE,128,0.0,1.0,59,0.00,,,0.00,Wunderground v.1.15,2013-04-18 17:00:00,
2013-04-18 13:01:00,76.3,60.9,30.10,South,184,1.0,1.0,59,0.00,,,0.00,Wunderground v.1.15,2013-04-18 17:01:00,
2013-04-18 13:02:00,76.4,61.0,30.10,South,184,0.0,2.0,59,0.00,,,0.00,Wunderground v.1.15,2013-04-18 17:02:00,
2013-04-18 13:05:00,76.7,61.3,30.10,South,172,1.0,3.0,59,0.00,,,0.00,Wunderground v.1.15,2013-04-18 17:05:00,
2013-04-18 13:06:00,76.7,61.3,30.10,SSE,152,2.0,3.0,59,0.00,,,0.00,Wunderground v.1.15,2013-04-18 17:06:00,
2013-04-18 13:07:00,76.9,60.0,30.09,SSE,150,2.0,3.0,56,0.00,,,0.00,Wunderground v.1.15,2013-04-18 17:07:00,
2013-04-18 13:10:00,76.8,60.9,30.09,SSW,205,1.0,1.0,58,0.00,,,0.00,Wunderground v.1.15,2013-04-18 17:10:00,
2013-04-18 13:11:00,76.9,61.0,30.09,SSW,197,1.0,1.0,58,0.00,,,0.00,Wunderground v.1.15,2013-04-18 17:11:00,
2013-04-18 13:12:00,76.9,61.0,30.09,East,100,1.0,2.0,58,0.00,,,0.00,Wunderground v.1.15,2013-04-18 17:12:00,
2013-04-18 13:13:00,77.0,60.6,30.09,NE,44,2.0,3.0,57,0.00,,,0.00,Wunderground v.1.15,2013-04-18 17:13:00,
2013-04-18 13:15:00,76.9,60.5,30.09,SSE,154,1.0,3.0,57,0.00,,,0.00,Wunderground v.1.15,2013-04-18 17:15:00,
2013-04-18 13:16:00,76.9,60.5,30.09,SSE,153,1.0,3.0,57,0.00,,,0.00,Wunderground v.1.15,2013-04-18 17:16:00,
2013-04-18 13:17:00,77.0,61.1,30.09,South,176,2.0,3.0,58,0.00,,,0.00,Wunderground v.1.15,2013-04-18 17:17:00,
2013-04-18 13:18:00,77.1,60.7,30.09,SE,131,1.0,3.0,57,0.00,,,0.00,Wunderground v.1.15,2013-04-18 17:18:00,
2013-04-18 13:20:00,77.1,60.2,30.09,SSE,167,5.0,5.0,56,0.00,,,0.00,Wunderground v.1.15,2013-04-18 17:20:00,
2013-04-18 13:21:00,77.1,60.2,30.09,SSE,153,3.0,5.0,56,0.00,,,0.00,Wunderground v.1.15,2013-04-18 17:21:00,
2013-04-18 13:22:00,77.1,60.2,30.09,ESE,121,3.0,5.0,56,0.00,,,0.00,Wunderground v.1.15,2013-04-18 17:22:00,
2013-04-18 13:23:00,77.0,59.1,30.09,SE,141,2.0,5.0,54,0.00,,,0.00,Wunderground v.1.15,2013-04-18 17:23:00,
2013-04-18 13:26:00,76.8,58.9,30.09,ESE,108,2.0,5.0,54,0.00,,,0.00,Wunderground v.1.15,2013-04-18 17:26:00,
2013-04-18 13:27:00,76.8,58.9,30.09,ESE,121,2.0,5.0,54,0.00,,,0.00,Wunderground v.1.15,2013-04-18 17:27:00,
2013-04-18 13:28:00,76.8,59.4,30.09,SSE,160,1.0,5.0,55,0.00,,,0.00,Wunderground v.1.15,2013-04-18 17:28:00,
2013-04-18 13:29:00,76.8,58.9,30.09,SW,217,2.0,5.0,54,0.00,,,0.00,Wunderground v.1.15,2013-04-18 17:29:00,
2013-04-18 13:32:00,76.9,59.5,30.08,SW,214,1.0,2.0,55,0.00,,,0.00,Wunderground v.1.15,2013-04-18 17:32:00,
2013-04-18 13:33:00,77.0,60.1,30.09,SSE,157,3.0,7.0,56,0.00,,,0.00,Wunderground v.1.15,2013-04-18 17:33:00,
2013-04-18 13:34:00,77.0,59.6,30.09,SSW,210,2.0,7.0,55,0.00,,,0.00,Wunderground v.1.15,2013-04-18 17:34:00,
2013-04-18 13:37:00,76.9,59.5,30.08,South,175,0.0,7.0,55,0.00,,,0.00,Wunderground v.1.15,2013-04-18 17:37:00,
2013-04-18 13:38:00,77.0,60.1,30.08,South,174,0.0,7.0,56,0.00,,,0.00,Wunderground v.1.15,2013-04-18 17:38:00,
2013-04-18 13:39:00,77.2,60.3,30.08,ESE,123,0.0,7.0,56,0.00,,,0.00,Wunderground v.1.15,2013-04-18 17:39:00,
2013-04-18 13:42:00,77.6,59.6,30.08,ESE,103,1.0,3.0,54,0.00,,,0.00,Wunderground v.1.15,2013-04-18 17:42:00,
2013-04-18 13:43:00,77.6,59.6,30.08,East,98,2.0,3.0,54,0.00,,,0.00,Wunderground v.1.15,2013-04-18 17:43:00,
2013-04-18 13:44:00,77.7,59.7,30.08,South,188,0.0,3.0,54,0.00,,,0.00,Wunderground v.1.15,2013-04-18 17:44:00,
2013-04-18 13:47:00,77.7,59.7,30.08,SSW,200,1.0,3.0,54,0.00,,,0.00,Wunderground v.1.15,2013-04-18 17:47:00,
2013-04-18 13:48:00,77.8,60.3,30.08,SSE,163,3.0,3.0,55,0.00,,,0.00,Wunderground v.1.15,2013-04-18 17:48:00,
2013-04-18 13:50:00,77.7,59.2,30.08,ESE,104,2.0,2.0,53,0.00,,,0.00,Wunderground v.1.15,2013-04-18 17:50:00,
2013-04-18 13:52:00,77.6,59.6,30.08,SW,222,3.0,4.0,54,0.00,,,0.00,Wunderground v.1.15,2013-04-18 17:52:00,
2013-04-18 13:53:00,77.6,60.2,30.08,SSE,163,0.0,4.0,55,0.00,,,0.00,Wunderground v.1.15,2013-04-18 17:53:00,
2013-04-18 13:54:00,77.6,60.2,30.08,SSE,160,2.0,4.0,55,0.00,,,0.00,Wunderground v.1.15,2013-04-18 17:54:00,
2013-04-18 13:55:00,77.7,59.7,30.08,SSW,207,3.0,4.0,54,0.00,,,0.00,Wunderground v.1.15,2013-04-18 17:55:00,
2013-04-18 13:57:00,77.7,60.2,30.08,SSW,204,1.0,7.0,55,0.00,,,0.00,Wunderground v.1.15,2013-04-18 17:57:00,
2013-04-18 13:58:00,77.7,60.2,30.08,SE,132,1.0,7.0,55,0.00,,,0.00,Wunderground v.1.15,2013-04-18 17:58:00,
2013-04-18 13:59:00,77.7,60.2,30.08,SE,143,1.0,7.0,55,0.00,,,0.00,Wunderground v.1.15,2013-04-18 17:59:00,
2013-04-18 14:01:00,77.9,59.4,30.08,ESE,115,1.0,2.0,53,0.00,,,0.00,Wunderground v.1.15,2013-04-18 18:01:00,
2013-04-18 14:03:00,78.1,60.1,30.08,ESE,105,2.0,3.0,54,0.00,,,0.00,Wunderground v.1.15,2013-04-18 18:03:00,
2013-04-18 14:04:00,78.1,60.1,30.08,SW,233,2.0,3.0,54,0.00,,,0.00,Wunderground v.1.15,2013-04-18 18:04:00,
2013-04-18 14:06:00,78.2,60.2,30.08,SSE,159,2.0,3.0,54,0.00,,,0.00,Wunderground v.1.15,2013-04-18 18:06:00,
2013-04-18 14:08:00,78.3,60.8,30.08,SE,135,1.0,6.0,55,0.00,,,0.00,Wunderground v.1.15,2013-04-18 18:08:00,
2013-04-18 14:09:00,78.2,60.7,30.08,SSW,208,1.0,6.0,55,0.00,,,0.00,Wunderground v.1.15,2013-04-18 18:09:00,
2013-04-18 14:11:00,78.3,60.3,30.07,SSW,197,0.0,3.0,54,0.00,,,0.00,Wunderground v.1.15,2013-04-18 18:11:00,
2013-04-18 14:14:00,78.5,61.0,30.07,East,99,2.0,3.0,55,0.00,,,0.00,Wunderground v.1.15,2013-04-18 18:14:00,
2013-04-18 14:15:00,78.7,61.2,30.07,SW,214,2.0,3.0,55,0.00,,,0.00,Wunderground v.1.15,2013-04-18 18:15:00,
2013-04-18 14:16:00,79.0,60.9,30.07,SSE,149,1.0,3.0,54,0.00,,,0.00,Wunderground v.1.15,2013-04-18 18:16:00,
2013-04-18 14:19:00,79.1,60.5,30.07,East,101,2.0,3.0,53,0.00,,,0.00,Wunderground v.1.15,2013-04-18 18:19:00,
2013-04-18 14:20:00,79.2,60.6,30.07,ESE,122,0.0,2.0,53,0.00,,,0.00,Wunderground v.1.15,2013-04-18 18:20:00,
2013-04-18 14:22:00,79.2,61.1,30.07,SE,128,2.0,2.0,54,0.00,,,0.00,Wunderground v.1.15,2013-04-18 18:22:00,
2013-04-18 14:24:00,79.2,60.6,30.07,SE,127,1.0,4.0,53,0.00,,,0.00,Wunderground v.1.15,2013-04-18 18:24:00,
2013-04-18 14:26:00,79.2,61.1,30.07,SE,138,1.0,4.0,54,0.00,,,0.00,Wunderground v.1.15,2013-04-18 18:26:00,
2013-04-18 14:27:00,79.2,61.1,30.07,SE,142,1.0,4.0,54,0.00,,,0.00,Wunderground v.1.15,2013-04-18 18:27:00,
2013-04-18 14:29:00,79.2,61.1,30.07,ENE,78,1.0,4.0,54,0.00,,,0.00,Wunderground v.1.15,2013-04-18 18:29:00,
2013-04-18 14:31:00,79.3,60.7,30.07,SSW,197,1.0,2.0,53,0.00,,,0.00,Wunderground v.1.15,2013-04-18 18:31:00,
2013-04-18 14:33:00,79.4,61.3,30.07,East,95,1.0,2.0,54,0.00,,,0.00,Wunderground v.1.15,2013-04-18 18:33:00,
2013-04-18 14:34:00,79.4,60.8,30.07,SSW,208,1.0,2.0,53,0.00,,,0.00,Wunderground v.1.15,2013-04-18 18:34:00,
2013-04-18 14:35:00,79.4,60.8,30.07,SSW,200,1.0,2.0,53,0.00,,,0.00,Wunderground v.1.15,2013-04-18 18:35:00,
2013-04-18 14:37:00,79.4,60.8,30.07,SE,143,1.0,2.0,53,0.00,,,0.00,Wunderground v.1.15,2013-04-18 18:37:00,
2013-04-18 14:38:00,79.4,61.3,30.07,SSW,205,1.0,2.0,54,0.00,,,0.00,Wunderground v.1.15,2013-04-18 18:38:00,
2013-04-18 14:39:00,79.3,60.7,30.07,SSW,201,2.0,4.0,53,0.00,,,0.00,Wunderground v.1.15,2013-04-18 18:39:00,
2013-04-18 14:40:00,79.3,60.7,30.07,SSW,201,1.0,4.0,53,0.00,,,0.00,Wunderground v.1.15,2013-04-18 18:40:00,
2013-04-18 14:43:00,79.2,61.1,30.07,ESE,111,2.0,2.0,54,0.00,,,0.00,Wunderground v.1.15,2013-04-18 18:43:00,
2013-04-18 14:45:00,79.4,61.8,30.06,SE,132,0.0,2.0,55,0.00,,,0.00,Wunderground v.1.15,2013-04-18 18:45:00,
2013-04-18 14:48:00,79.5,61.4,30.06,SE,128,1.0,3.0,54,0.00,,,0.00,Wunderground v.1.15,2013-04-18 18:48:00,
2013-04-18 14:50:00,79.6,61.5,30.06,ESE,108,1.0,3.0,54,0.00,,,0.00,Wunderground v.1.15,2013-04-18 18:50:00,
2013-04-18 14:53:00,79.7,61.1,30.06,South,190,0.0,3.0,53,0.00,,,0.00,Wunderground v.1.15,2013-04-18 18:53:00,
2013-04-18 14:55:00,79.8,61.1,30.06,South,187,0.0,3.0,53,0.00,,,0.00,Wunderground v.1.15,2013-04-18 18:55:00,
2013-04-18 14:58:00,79.9,62.3,30.05,SSW,205,2.0,3.0,55,0.00,,,0.00,Wunderground v.1.15,2013-04-18 18:58:00,
2013-04-18 15:00:00,80.0,60.8,30.05,SSW,198,2.0,3.0,52,0.00,,,0.00,Wunderground v.1.15,2013-04-18 19:00:00,
2013-04-18 15:03:00,79.7,61.1,30.05,SSW,198,2.0,4.0,53,0.00,,,0.00,Wunderground v.1.15,2013-04-18 19:03:00,
2013-04-18 15:04:00,79.7,61.1,30.05,South,169,1.0,4.0,53,0.00,,,0.00,Wunderground v.1.15,2013-04-18 19:04:00,
2013-04-18 15:05:00,79.7,61.6,30.05,ESE,108,1.0,4.0,54,0.00,,,0.00,Wunderground v.1.15,2013-04-18 19:05:00,
2013-04-18 15:06:00,79.7,61.1,30.05,ESE,103,1.0,4.0,53,0.00,,,0.00,Wunderground v.1.15,2013-04-18 19:06:00,
2013-04-18 15:08:00,79.9,60.7,30.05,East,88,1.0,4.0,52,0.00,,,0.00,Wunderground v.1.15,2013-04-18 19:08:00,
2013-04-18 15:09:00,79.9,61.2,30.05,SSW,203,2.0,4.0,53,0.00,,,0.00,Wunderground v.1.15,2013-04-18 19:09:00,
2013-04-18 15:11:00,79.9,61.2,30.05,South,185,2.0,5.0,53,0.00,,,0.00,Wunderground v.1.15,2013-04-18 19:11:00,
2013-04-18 15:14:00,79.8,60.6,30.05,SSE,155,1.0,5.0,52,0.00,,,0.00,Wunderground v.1.15,2013-04-18 19:14:00,
2013-04-18 15:15:00,79.7,61.1,30.05,SSW,210,4.0,5.0,53,0.00,,,0.00,Wunderground v.1.15,2013-04-18 19:15:00,
2013-04-18 15:16:00,79.7,60.5,30.05,East,89,2.0,5.0,52,0.00,,,0.00,Wunderground v.1.15,2013-04-18 19:16:00,
2013-04-18 15:17:00,79.6,61.0,30.05,SSE,153,2.0,5.0,53,0.00,,,0.00,Wunderground v.1.15,2013-04-18 19:17:00,
2013-04-18 15:19:00,79.7,61.1,30.05,SE,141,1.0,5.0,53,0.00,,,0.00,Wunderground v.1.15,2013-04-18 19:19:00,
2013-04-18 15:20:00,79.7,61.1,30.05,East,95,3.0,3.0,53,0.00,,,0.00,Wunderground v.1.15,2013-04-18 19:20:00,
2013-04-18 15:21:00,79.7,61.1,30.05,East,100,1.0,3.0,53,0.00,,,0.00,Wunderground v.1.15,2013-04-18 19:21:00,
2013-04-18 15:22:00,79.8,60.6,30.05,East,100,1.0,3.0,52,0.00,,,0.00,Wunderground v.1.15,2013-04-18 19:22:00,
2013-04-18 15:24:00,79.8,61.1,30.05,SSW,207,1.0,3.0,53,0.00,,,0.00,Wunderground v.1.15,2013-04-18 19:24:00,
2013-04-18 15:25:00,79.9,61.2,30.05,SSW,202,0.0,3.0,53,0.00,,,0.00,Wunderground v.1.15,2013-04-18 19:25:00,
2013-04-18 15:26:00,79.9,61.2,30.05,SE,136,1.0,3.0,53,0.00,,,0.00,Wunderground v.1.15,2013-04-18 19:26:00,
2013-04-18 15:27:00,80.0,61.3,30.05,SE,136,0.0,3.0,53,0.00,,,0.00,Wunderground v.1.15,2013-04-18 19:27:00,
2013-04-18 15:29:00,80.2,61.0,30.04,SSW,205,3.0,4.0,52,0.00,,,0.00,Wunderground v.1.15,2013-04-18 19:29:00,
2013-04-18 15:30:00,80.2,61.0,30.04,ESE,113,1.0,3.0,52,0.00,,,0.00,Wunderground v.1.15,2013-04-18 19:30:00,
2013-04-18 15:31:00,80.2,61.0,30.04,South,171,2.0,3.0,52,0.00,,,0.00,Wunderground v.1.15,2013-04-18 19:31:00,
2013-04-18 15:33:00,80.1,60.3,30.04,SSW,205,0.0,4.0,51,0.00,,,0.00,Wunderground v.1.15,2013-04-18 19:33:00,
2013-04-18 15:34:00,80.0,60.8,30.04,SSW,203,0.0,4.0,52,0.00,,,0.00,Wunderground v.1.15,2013-04-18 19:34:00,
2013-04-18 15:36:00,79.9,61.2,30.04,SSW,194,2.0,4.0,53,0.00,,,0.00,Wunderground v.1.15,2013-04-18 19:36:00,
2013-04-18 15:38:00,79.8,61.1,30.04,SE,138,1.0,4.0,53,0.00,,,0.00,Wunderground v.1.15,2013-04-18 19:38:00,
2013-04-18 15:39:00,79.8,60.6,30.04,ESE,119,1.0,4.0,52,0.00,,,0.00,Wunderground v.1.15,2013-04-18 19:39:00,
2013-04-18 15:42:00,79.8,61.1,30.04,SSE,156,0.0,2.0,53,0.00,,,0.00,Wunderground v.1.15,2013-04-18 19:42:00,
2013-04-18 15:43:00,79.9,61.2,30.04,SSE,156,1.0,2.0,53,0.00,,,0.00,Wunderground v.1.15,2013-04-18 19:43:00,
2013-04-18 15:45:00,80.2,61.5,30.04,East,98,2.0,2.0,53,0.00,,,0.00,Wunderground v.1.15,2013-04-18 19:45:00,
2013-04-18 15:47:00,80.4,61.2,30.04,South,180,1.0,3.0,52,0.00,,,0.00,Wunderground v.1.15,2013-04-18 19:47:00,
2013-04-18 15:48:00,80.5,61.3,30.04,East,84,1.0,3.0,52,0.00,,,0.00,Wunderground v.1.15,2013-04-18 19:48:00,
2013-04-18 15:50:00,80.8,62.6,30.04,SSW,212,1.0,1.0,54,0.00,,,0.00,Wunderground v.1.15,2013-04-18 19:50:00,
2013-04-18 15:52:00,80.9,61.6,30.04,SSW,210,0.0,3.0,52,0.00,,,0.00,Wunderground v.1.15,2013-04-18 19:52:00,
2013-04-18 15:53:00,80.8,62.1,30.04,ESE,111,0.0,3.0,53,0.00,,,0.00,Wunderground v.1.15,2013-04-18 19:53:00,
2013-04-18 15:55:00,80.8,61.0,30.04,SSW,203,1.0,3.0,51,0.00,,,0.00,Wunderground v.1.15,2013-04-18 19:55:00,
2013-04-18 15:57:00,80.8,61.5,30.04,SW,221,1.0,3.0,52,0.00,,,0.00,Wunderground v.1.15,2013-04-18 19:57:00,
2013-04-18 15:58:00,80.8,62.6,30.03,SSW,205,1.0,3.0,54,0.00,,,0.00,Wunderground v.1.15,2013-04-18 19:58:00,
2013-04-18 16:00:00,80.7,61.4,30.03,South,172,2.0,3.0,52,0.00,,,0.00,Wunderground v.1.15,2013-04-18 20:00:00,
2013-04-18 16:02:00,80.7,61.4,30.03,SSW,207,0.0,3.0,52,0.00,,,0.00,Wunderground v.1.15,2013-04-18 20:02:00,
2013-04-18 16:03:00,80.7,61.4,30.03,SSW,204,1.0,4.0,52,0.00,,,0.00,Wunderground v.1.15,2013-04-18 20:03:00,
2013-04-18 16:05:00,80.7,60.9,30.03,SSW,208,0.0,5.0,51,0.00,,,0.00,Wunderground v.1.15,2013-04-18 20:05:00,
2013-04-18 16:07:00,80.8,61.5,30.03,SE,143,1.0,5.0,52,0.00,,,0.00,Wunderground v.1.15,2013-04-18 20:07:00,
2013-04-18 16:09:00,80.9,61.6,30.03,SSE,152,3.0,5.0,52,0.00,,,0.00,Wunderground v.1.15,2013-04-18 20:09:00,
2013-04-18 16:10:00,80.9,61.6,30.03,ESE,108,2.0,2.0,52,0.00,,,0.00,Wunderground v.1.15,2013-04-18 20:10:00,
2013-04-18 16:12:00,81.0,62.3,30.03,SSW,203,0.0,2.0,53,0.00,,,0.00,Wunderground v.1.15,2013-04-18 20:12:00,
2013-04-18 16:14:00,81.0,61.7,30.03,SE,127,2.0,2.0,52,0.00,,,0.00,Wunderground v.1.15,2013-04-18 20:14:00,
2013-04-18 16:16:00,80.9,61.6,30.03,ESE,111,0.0,2.0,52,0.00,,,0.00,Wunderground v.1.15,2013-04-18 20:16:00,
2013-04-18 16:17:00,80.8,61.5,30.03,ESE,111,0.0,2.0,52,0.00,,,0.00,Wunderground v.1.15,2013-04-18 20:17:00,
2013-04-18 16:18:00,80.8,61.5,30.02,ESE,112,0.0,2.0,52,0.00,,,0.00,Wunderground v.1.15,2013-04-18 20:18:00,
2013-04-18 16:19:00,80.9,61.6,30.02,ESE,117,1.0,2.0,52,0.00,,,0.00,Wunderground v.1.15,2013-04-18 20:19:00,
2013-04-18 16:22:00,80.8,61.5,30.02,SSW,211,0.0,3.0,52,0.00,,,0.00,Wunderground v.1.15,2013-04-18 20:22:00,
2013-04-18 16:23:00,80.8,61.5,30.02,SSW,211,0.0,3.0,52,0.00,,,0.00,Wunderground v.1.15,2013-04-18 20:23:00,
2013-04-18 16:24:00,80.9,62.2,30.02,SSW,211,0.0,3.0,53,0.00,,,0.00,Wunderground v.1.15,2013-04-18 20:24:00,
2013-04-18 16:27:00,81.0,62.3,30.02,South,170,1.0,3.0,53,0.00,,,0.00,Wunderground v.1.15,2013-04-18 20:27:00,
2013-04-18 16:28:00,81.1,61.8,30.02,South,176,0.0,3.0,52,0.00,,,0.00,Wunderground v.1.15,2013-04-18 20:28:00,
2013-04-18 16:29:00,81.0,62.3,30.02,ESE,122,1.0,3.0,53,0.00,,,0.00,Wunderground v.1.15,2013-04-18 20:29:00,
2013-04-18 16:30:00,81.0,61.7,30.02,ESE,117,1.0,3.0,52,0.00,,,0.00,Wunderground v.1.15,2013-04-18 20:30:00,
2013-04-18 16:32:00,80.7,62.0,30.02,SE,135,2.0,2.0,53,0.00,,,0.00,Wunderground v.1.15,2013-04-18 20:32:00,
2013-04-18 16:33:00,80.5,61.8,30.02,ESE,113,1.0,2.0,53,0.00,,,0.00,Wunderground v.1.15,2013-04-18 20:33:00,
2013-04-18 16:34:00,80.4,61.7,30.02,SSW,207,1.0,2.0,53,0.00,,,0.00,Wunderground v.1.15,2013-04-18 20:34:00,
2013-04-18 16:35:00,80.2,61.5,30.01,ESE,115,1.0,2.0,53,0.00,,,0.00,Wunderground v.1.15,2013-04-18 20:35:00,
2013-04-18 16:37:00,80.1,62.0,30.02,East,94,2.0,2.0,54,0.00,,,0.00,Wunderground v.1.15,2013-04-18 20:37:00,
2013-04-18 16:38:00,80.0,61.3,30.01,South,169,2.0,2.0,53,0.00,,,0.00,Wunderground v.1.15,2013-04-18 20:38:00,
2013-04-18 16:39:00,79.8,61.1,30.01,East,89,2.0,2.0,53,0.00,,,0.00,Wunderground v.1.15,2013-04-18 20:39:00,
2013-04-18 16:40:00,79.8,61.1,30.01,SSW,203,1.0,3.0,53,0.00,,,0.00,Wunderground v.1.15,2013-04-18 20:40:00,
2013-04-18 16:43:00,79.6,61.5,30.01,SE,143,2.0,3.0,54,0.00,,,0.00,Wunderground v.1.15,2013-04-18 20:43:00,
2013-04-18 16:44:00,79.6,61.0,30.01,SSE,149,0.0,3.0,53,0.00,,,0.00,Wunderground v.1.15,2013-04-18 20:44:00,
2013-04-18 16:45:00,79.6,61.5,30.01,East,100,2.0,3.0,54,0.00,,,0.00,Wunderground v.1.15,2013-04-18 20:45:00,
2013-04-18 16:46:00,79.6,61.5,30.01,ESE,117,0.0,3.0,54,0.00,,,0.00,Wunderground v.1.15,2013-04-18 20:46:00,
2013-04-18 16:48:00,79.6,61.5,30.01,SSW,200,0.0,3.0,54,0.00,,,0.00,Wunderground v.1.15,2013-04-18 20:48:00,
2013-04-18 16:49:00,79.6,62.0,30.01,SSE,163,2.0,3.0,55,0.00,,,0.00,Wunderground v.1.15,2013-04-18 20:49:00,
2013-04-18 16:50:00,79.7,61.6,30.01,SSE,155,1.0,1.0,54,0.00,,,0.00,Wunderground v.1.15,2013-04-18 20:50:00,
2013-04-18 16:51:00,79.8,61.7,30.01,SSE,160,1.0,2.0,54,0.00,,,0.00,Wunderground v.1.15,2013-04-18 20:51:00,
2013-04-18 16:53:00,79.9,61.2,30.01,SSE,167,1.0,4.0,53,0.00,,,0.00,Wunderground v.1.15,2013-04-18 20:53:00,
2013-04-18 16:54:00,80.0,61.3,30.01,ENE,64,3.0,4.0,53,0.00,,,0.00,Wunderground v.1.15,2013-04-18 20:54:00,
2013-04-18 16:55:00,80.1,61.4,30.01,ENE,65,0.0,4.0,53,0.00,,,0.00,Wunderground v.1.15,2013-04-18 20:55:00,
2013-04-18 16:56:00,80.2,61.5,30.01,South,190,3.0,4.0,53,0.00,,,0.00,Wunderground v.1.15,2013-04-18 20:56:00,
2013-04-18 16:58:00,80.4,61.7,30.00,SE,128,0.0,4.0,53,0.00,,,0.00,Wunderground v.1.15,2013-04-18 20:58:00,
2013-04-18 16:59:00,80.6,62.4,30.00,SE,128,2.0,4.0,54,0.00,,,0.00,Wunderground v.1.15,2013-04-18 20:59:00,
2013-04-18 17:00:00,80.8,62.6,30.00,SSE,153,1.0,2.0,54,0.00,,,0.00,Wunderground v.1.15,2013-04-18 21:00:00,
2013-04-18 17:02:00,80.9,62.2,30.00,ESE,123,1.0,2.0,53,0.00,,,0.00,Wunderground v.1.15,2013-04-18 21:02:00,
2013-04-18 17:03:00,80.9,62.2,30.01,SSE,162,0.0,2.0,53,0.00,,,0.00,Wunderground v.1.15,2013-04-18 21:03:00,
2013-04-18 17:04:00,80.8,61.5,30.01,SE,125,1.0,2.0,52,0.00,,,0.00,Wunderground v.1.15,2013-04-18 21:04:00,
2013-04-18 17:05:00,80.8,61.5,30.00,East,101,2.0,2.0,52,0.00,,,0.00,Wunderground v.1.15,2013-04-18 21:05:00,
2013-04-18 17:07:00,80.5,60.7,30.00,SSE,158,1.0,3.0,51,0.00,,,0.00,Wunderground v.1.15,2013-04-18 21:07:00,
2013-04-18 17:08:00,80.4,61.2,30.00,ESE,107,2.0,3.0,52,0.00,,,0.00,Wunderground v.1.15,2013-04-18 21:08:00,
2013-04-18 17:09:00,80.3,61.1,30.00,SE,142,1.0,3.0,52,0.00,,,0.00,Wunderground v.1.15,2013-04-18 21:09:00,
2013-04-18 17:10:00,80.2,61.0,30.00,SSW,195,3.0,3.0,52,0.00,,,0.00,Wunderground v.1.15,2013-04-18 21:10:00,
2013-04-18 17:12:00,80.0,61.3,30.00,ESE,117,2.0,3.0,53,0.00,,,0.00,Wunderground v.1.15,2013-04-18 21:12:00,
2013-04-18 17:14:00,79.9,61.2,30.00,East,84,1.0,3.0,53,0.00,,,0.00,Wunderground v.1.15,2013-04-18 21:14:00,
2013-04-18 17:15:00,79.8,61.1,30.00,SE,127,2.0,3.0,53,0.00,,,0.00,Wunderground v.1.15,2013-04-18 21:15:00,
2013-04-18 17:17:00,79.8,61.1,30.00,East,97,1.0,3.0,53,0.00,,,0.00,Wunderground v.1.15,2013-04-18 21:17:00,
2013-04-18 17:19:00,80.0,61.3,30.00,SSE,158,1.0,3.0,53,0.00,,,0.00,Wunderground v.1.15,2013-04-18 21:19:00,
2013-04-18 17:20:00,80.1,61.4,30.00,SSW,211,0.0,1.0,53,0.00,,,0.00,Wunderground v.1.15,2013-04-18 21:20:00,
2013-04-18 17:22:00,80.5,61.8,30.00,South,169,1.0,1.0,53,0.00,,,0.00,Wunderground v.1.15,2013-04-18 21:22:00,
2013-04-18 17:25:00,80.5,61.3,30.00,SSW,195,0.0,2.0,52,0.00,,,0.00,Wunderground v.1.15,2013-04-18 21:25:00,
2013-04-18 17:26:00,80.5,61.3,30.00,SW,219,0.0,2.0,52,0.00,,,0.00,Wunderground v.1.15,2013-04-18 21:26:00,
2013-04-18 17:27:00,80.6,62.4,30.00,SW,219,0.0,2.0,54,0.00,,,0.00,Wunderground v.1.15,2013-04-18 21:27:00,
2013-04-18 17:30:00,80.6,61.9,30.00,South,187,0.0,1.0,53,0.00,,,0.00,Wunderground v.1.15,2013-04-18 21:30:00,
2013-04-18 17:31:00,80.6,62.4,30.00,SSE,157,1.0,1.0,54,0.00,,,0.00,Wunderground v.1.15,2013-04-18 21:31:00,
2013-04-18 17:33:00,80.6,62.4,30.00,ESE,123,0.0,2.0,54,0.00,,,0.00,Wunderground v.1.15,2013-04-18 21:33:00,
2013-04-18 17:35:00,80.5,62.3,30.00,ESE,111,0.0,2.0,54,0.00,,,0.00,Wunderground v.1.15,2013-04-18 21:35:00,
2013-04-18 17:36:00,80.4,62.2,30.00,SW,225,2.0,2.0,54,0.00,,,0.00,Wunderground v.1.15,2013-04-18 21:36:00,
2013-04-18 17:38:00,80.1,62.5,30.00,SSE,149,0.0,2.0,55,0.00,,,0.00,Wunderground v.1.15,2013-04-18 21:38:00,
2013-04-18 17:39:00,80.1,62.5,30.00,SSE,149,0.0,2.0,55,0.00,,,0.00,Wunderground v.1.15,2013-04-18 21:39:00,
2013-04-18 17:40:00,80.0,61.9,30.00,ESE,107,1.0,1.0,54,0.00,,,0.00,Wunderground v.1.15,2013-04-18 21:40:00,
2013-04-18 17:41:00,80.0,61.9,30.00,SSE,160,1.0,3.0,54,0.00,,,0.00,Wunderground v.1.15,2013-04-18 21:41:00,
2013-04-18 17:44:00,79.8,62.2,30.00,SE,143,1.0,3.0,55,0.00,,,0.00,Wunderground v.1.15,2013-04-18 21:44:00,
2013-04-18 17:45:00,79.7,62.1,30.00,South,179,0.0,3.0,55,0.00,,,0.00,Wunderground v.1.15,2013-04-18 21:45:00,
2013-04-18 17:46:00,79.7,62.1,30.00,ESE,118,0.0,3.0,55,0.00,,,0.00,Wunderground v.1.15,2013-04-18 21:46:00,
2013-04-18 17:49:00,79.8,62.2,30.00,ESE,113,1.0,3.0,55,0.00,,,0.00,Wunderground v.1.15,2013-04-18 21:49:00,
2013-04-18 17:51:00,79.9,62.3,30.00,ESE,103,1.0,2.0,55,0.00,,,0.00,Wunderground v.1.15,2013-04-18 21:51:00,
2013-04-18 17:54:00,80.1,62.5,30.00,ESE,105,0.0,2.0,55,0.00,,,0.00,Wunderground v.1.15,2013-04-18 21:54:00,
2013-04-18 17:56:00,80.3,62.7,30.00,ESE,105,1.0,2.0,55,0.00,,,0.00,Wunderground v.1.15,2013-04-18 21:56:00,
2013-04-18 17:57:00,80.5,62.8,30.00,East,90,2.0,2.0,55,0.00,,,0.00,Wunderground v.1.15,2013-04-18 21:57:00,
2013-04-18 17:59:00,80.8,63.1,30.00,ESE,104,3.0,4.0,55,0.00,,,0.00,Wunderground v.1.15,2013-04-18 21:59:00,
2013-04-18 18:00:00,80.8,63.1,30.00,SSW,205,1.0,2.0,55,0.00,,,0.00,Wunderground v.1.15,2013-04-18 22:00:00,
2013-04-18 18:01:00,80.8,62.6,29.99,SSW,208,1.0,2.0,54,0.00,,,0.00,Wunderground v.1.15,2013-04-18 22:01:00,
2013-04-18 18:02:00,80.8,63.1,29.99,SSW,201,1.0,2.0,55,0.00,,,0.00,Wunderground v.1.15,2013-04-18 22:02:00,
2013-04-18 18:05:00,81.1,63.4,29.99,SSE,155,0.0,2.0,55,0.00,,,0.00,Wunderground v.1.15,2013-04-18 22:05:00,
2013-04-18 18:06:00,81.2,63.5,29.99,ESE,108,2.0,2.0,55,0.00,,,0.00,Wunderground v.1.15,2013-04-18 22:06:00,
2013-04-18 18:08:00,81.2,63.0,29.99,SSE,166,1.0,3.0,54,0.00,,,0.00,Wunderground v.1.15,2013-04-18 22:08:00,
2013-04-18 18:10:00,81.2,63.0,29.99,SSE,165,2.0,3.0,54,0.00,,,0.00,Wunderground v.1.15,2013-04-18 22:10:00,
2013-04-18 18:11:00,81.2,63.0,29.99,ESE,105,0.0,2.0,54,0.00,,,0.00,Wunderground v.1.15,2013-04-18 22:11:00,
2013-04-18 18:12:00,81.2,63.0,29.99,SE,131,2.0,3.0,54,0.00,,,0.00,Wunderground v.1.15,2013-04-18 22:12:00,
2013-04-18 18:13:00,81.0,62.8,29.99,East,101,0.0,3.0,54,0.00,,,0.00,Wunderground v.1.15,2013-04-18 22:13:00,
2013-04-18 18:15:00,80.8,62.6,30.00,ESE,108,1.0,3.0,54,0.00,,,0.00,Wunderground v.1.15,2013-04-18 22:15:00,
2013-04-18 18:16:00,80.6,62.4,30.00,SSE,160,0.0,3.0,54,0.00,,,0.00,Wunderground v.1.15,2013-04-18 22:16:00,
2013-04-18 18:17:00,80.5,62.8,30.00,SSE,160,0.0,3.0,55,0.00,,,0.00,Wunderground v.1.15,2013-04-18 22:17:00,
2013-04-18 18:18:00,80.4,62.8,29.99,SW,218,0.0,3.0,55,0.00,,,0.00,Wunderground v.1.15,2013-04-18 22:18:00,
2013-04-18 18:20:00,80.2,63.1,29.99,SSW,192,1.0,1.0,56,0.00,,,0.00,Wunderground v.1.15,2013-04-18 22:20:00,
2013-04-18 18:21:00,80.1,63.0,29.99,South,170,1.0,3.0,56,0.00,,,0.00,Wunderground v.1.15,2013-04-18 22:21:00,
2013-04-18 18:22:00,80.1,63.0,29.99,SSE,155,1.0,3.0,56,0.00,,,0.00,Wunderground v.1.15,2013-04-18 22:22:00,
2013-04-18 18:24:00,79.7,62.6,29.99,SSE,167,2.0,3.0,56,0.00,,,0.00,Wunderground v.1.15,2013-04-18 22:24:00,
2013-04-18 18:25:00,79.4,62.3,29.99,SSE,148,1.0,3.0,56,0.00,,,0.00,Wunderground v.1.15,2013-04-18 22:25:00,
2013-04-18 18:26:00,79.2,62.1,29.99,SSE,152,1.0,3.0,56,0.00,,,0.00,Wunderground v.1.15,2013-04-18 22:26:00,
2013-04-18 18:27:00,79.2,62.1,29.99,SSE,149,1.0,3.0,56,0.00,,,0.00,Wunderground v.1.15,2013-04-18 22:27:00,
2013-04-18 18:29:00,78.9,62.4,29.99,SSE,166,0.0,3.0,57,0.00,,,0.00,Wunderground v.1.15,2013-04-18 22:29:00,
2013-04-18 18:31:00,78.7,62.7,29.99,ESE,120,1.0,2.0,58,0.00,,,0.00,Wunderground v.1.15,2013-04-18 22:31:00,
2013-04-18 18:32:00,78.6,62.1,29.99,East,101,0.0,2.0,57,0.00,,,0.00,Wunderground v.1.15,2013-04-18 22:32:00,
2013-04-18 18:34:00,78.5,62.0,29.99,ESE,115,1.0,2.0,57,0.00,,,0.00,Wunderground v.1.15,2013-04-18 22:34:00,
2013-04-18 18:36:00,78.3,62.3,29.98,SSW,207,1.0,2.0,58,0.00,,,0.00,Wunderground v.1.15,2013-04-18 22:36:00,
2013-04-18 18:37:00,78.3,62.3,29.98,SSE,148,1.0,2.0,58,0.00,,,0.00,Wunderground v.1.15,2013-04-18 22:37:00,
2013-04-18 18:39:00,78.4,62.4,29.98,SSE,158,0.0,2.0,58,0.00,,,0.00,Wunderground v.1.15,2013-04-18 22:39:00,
2013-04-18 18:42:00,78.5,62.5,29.98,SE,132,0.0,2.0,58,0.00,,,0.00,Wunderground v.1.15,2013-04-18 22:42:00,
2013-04-18 18:44:00,78.5,62.5,29.98,SSW,203,1.0,3.0,58,0.00,,,0.00,Wunderground v.1.15,2013-04-18 22:44:00,
2013-04-18 18:47:00,78.4,62.4,29.98,ESE,122,1.0,3.0,58,0.00,,,0.00,Wunderground v.1.15,2013-04-18 22:47:00,
2013-04-18 18:48:00,78.3,62.3,29.98,ESE,107,1.0,3.0,58,0.00,,,0.00,Wunderground v.1.15,2013-04-18 22:48:00,
2013-04-18 18:49:00,78.2,62.2,29.98,ESE,113,1.0,3.0,58,0.00,,,0.00,Wunderground v.1.15,2013-04-18 22:49:00,
2013-04-18 18:52:00,77.9,62.4,29.98,SSW,200,0.0,2.0,59,0.00,,,0.00,Wunderground v.1.15,2013-04-18 22:52:00,
2013-04-18 18:53:00,77.8,61.8,29.98,SSE,152,2.0,3.0,58,0.00,,,0.00,Wunderground v.1.15,2013-04-18 22:53:00,
2013-04-18 18:54:00,77.7,62.2,29.98,SSE,155,2.0,3.0,59,0.00,,,0.00,Wunderground v.1.15,2013-04-18 22:54:00,
2013-04-18 18:57:00,77.5,62.0,29.98,ESE,119,2.0,3.0,59,0.00,,,0.00,Wunderground v.1.15,2013-04-18 22:57:00,
2013-04-18 18:58:00,77.4,61.9,29.98,SSE,168,1.0,3.0,59,0.00,,,0.00,Wunderground v.1.15,2013-04-18 22:58:00,
2013-04-18 19:00:00,77.3,61.9,29.98,ESE,117,2.0,3.0,59,0.00,,,0.00,Wunderground v.1.15,2013-04-18 23:00:00,
2013-04-18 19:02:00,77.1,61.7,29.98,SSE,149,0.0,2.0,59,0.00,,,0.00,Wunderground v.1.15,2013-04-18 23:02:00,
2013-04-18 19:03:00,77.1,62.1,29.98,SE,136,0.0,2.0,60,0.00,,,0.00,Wunderground v.1.15,2013-04-18 23:03:00,
2013-04-18 19:05:00,77.0,61.6,29.98,SSE,163,1.0,2.0,59,0.00,,,0.00,Wunderground v.1.15,2013-04-18 23:05:00,
2013-04-18 19:07:00,76.9,62.0,29.98,SW,229,0.0,2.0,60,0.00,,,0.00,Wunderground v.1.15,2013-04-18 23:07:00,
2013-04-18 19:08:00,76.9,62.0,29.98,SW,229,0.0,2.0,60,0.00,,,0.00,Wunderground v.1.15,2013-04-18 23:08:00,
2013-04-18 19:10:00,76.8,61.9,29.98,SSW,207,1.0,1.0,60,0.00,,,0.00,Wunderground v.1.15,2013-04-18 23:10:00,
2013-04-18 19:12:00,76.6,61.7,29.98,East,83,2.0,3.0,60,0.00,,,0.00,Wunderground v.1.15,2013-04-18 23:12:00,
2013-04-18 19:13:00,76.6,61.7,29.98,East,94,2.0,3.0,60,0.00,,,0.00,Wunderground v.1.15,2013-04-18 23:13:00,
2013-04-18 19:14:00,76.6,61.7,29.98,SW,225,4.0,4.0,60,0.00,,,0.00,Wunderground v.1.15,2013-04-18 23:14:00,
2013-04-18 19:16:00,76.4,61.5,29.98,SSE,160,1.0,4.0,60,0.00,,,0.00,Wunderground v.1.15,2013-04-18 23:16:00,
2013-04-18 19:18:00,76.3,61.4,29.98,SE,141,0.0,4.0,60,0.00,,,0.00,Wunderground v.1.15,2013-04-18 23:18:00,
2013-04-18 19:19:00,76.2,61.3,29.98,SSW,211,1.0,4.0,60,0.00,,,0.00,Wunderground v.1.15,2013-04-18 23:19:00,
2013-04-18 19:22:00,76.1,61.2,29.98,ESE,103,1.0,3.0,60,0.00,,,0.00,Wunderground v.1.15,2013-04-18 23:22:00,
2013-04-18 19:23:00,76.0,61.1,29.98,South,186,2.0,3.0,60,0.00,,,0.00,Wunderground v.1.15,2013-04-18 23:23:00,
2013-04-18 19:24:00,75.9,61.0,29.98,East,94,0.0,3.0,60,0.00,,,0.00,Wunderground v.1.15,2013-04-18 23:24:00,
2013-04-18 19:25:00,75.9,61.5,29.98,East,93,1.0,3.0,61,0.00,,,0.00,Wunderground v.1.15,2013-04-18 23:25:00,
2013-04-18 19:27:00,75.7,61.3,29.98,East,100,0.0,3.0,61,0.00,,,0.00,Wunderground v.1.15,2013-04-18 23:27:00,
2013-04-18 19:28:00,75.7,61.3,29.98,SW,217,0.0,3.0,61,0.00,,,0.00,Wunderground v.1.15,2013-04-18 23:28:00,
2013-04-18 19:29:00,75.7,61.3,29.98,SW,216,0.0,3.0,61,0.00,,,0.00,Wunderground v.1.15,2013-04-18 23:29:00,
2013-04-18 19:30:00,75.6,61.2,29.98,SSE,167,1.0,1.0,61,0.00,,,0.00,Wunderground v.1.15,2013-04-18 23:30:00,
2013-04-18 19:32:00,75.5,61.6,29.98,SE,139,1.0,1.0,62,0.00,,,0.00,Wunderground v.1.15,2013-04-18 23:32:00,
2013-04-18 19:33:00,75.4,61.5,29.98,ESE,116,0.0,1.0,62,0.00,,,0.00,Wunderground v.1.15,2013-04-18 23:33:00,
2013-04-18 19:34:00,75.4,61.5,29.98,ESE,116,0.0,1.0,62,0.00,,,0.00,Wunderground v.1.15,2013-04-18 23:34:00,
2013-04-18 19:35:00,75.3,61.4,29.98,ESE,115,1.0,1.0,62,0.00,,,0.00,Wunderground v.1.15,2013-04-18 23:35:00,
2013-04-18 19:37:00,75.1,61.2,29.98,ESE,116,0.0,1.0,62,0.00,,,0.00,Wunderground v.1.15,2013-04-18 23:37:00,
2013-04-18 19:39:00,75.1,61.6,29.98,ESE,115,0.0,1.0,63,0.00,,,0.00,Wunderground v.1.15,2013-04-18 23:39:00,
2013-04-18 19:40:00,75.0,61.5,29.98,ESE,116,1.0,1.0,63,0.00,,,0.00,Wunderground v.1.15,2013-04-18 23:40:00,
2013-04-18 19:43:00,74.8,61.4,29.98,ESE,115,0.0,1.0,63,0.00,,,0.00,Wunderground v.1.15,2013-04-18 23:43:00,
2013-04-18 19:44:00,74.8,61.4,29.98,ESE,115,0.0,1.0,63,0.00,,,0.00,Wunderground v.1.15,2013-04-18 23:44:00,
2013-04-18 19:45:00,74.7,61.3,29.98,ESE,115,1.0,1.0,63,0.00,,,0.00,Wunderground v.1.15,2013-04-18 23:45:00,
2013-04-18 19:48:00,74.5,61.1,29.98,ESE,116,0.0,1.0,63,0.00,,,0.00,Wunderground v.1.15,2013-04-18 23:48:00,
2013-04-18 19:49:00,74.5,61.1,29.98,ESE,115,0.0,1.0,63,0.00,,,0.00,Wunderground v.1.15,2013-04-18 23:49:00,
2013-04-18 19:50:00,74.4,61.0,29.98,ESE,115,0.0,0.0,63,0.00,,,0.00,Wunderground v.1.15,2013-04-18 23:50:00,
2013-04-18 19:53:00,74.2,60.3,29.98,SW,225,0.0,2.0,62,0.00,,,0.00,Wunderground v.1.15,2013-04-18 23:53:00,
2013-04-18 19:54:00,74.2,60.8,29.98,SSW,205,1.0,2.0,63,0.00,,,0.00,Wunderground v.1.15,2013-04-18 23:54:00,
2013-04-18 19:55:00,74.2,60.8,29.98,ESE,118,1.0,2.0,63,0.00,,,0.00,Wunderground v.1.15,2013-04-18 23:55:00,
2013-04-18 19:58:00,74.0,60.6,29.98,SSE,160,0.0,2.0,63,0.00,,,0.00,Wunderground v.1.15,2013-04-18 23:58:00,
2013-04-18 19:59:00,74.0,60.2,29.98,SSE,161,0.0,2.0,62,0.00,,,0.00,Wunderground v.1.15,2013-04-18 23:59:00,
2013-04-18 20:00:00,74.0,60.2,29.98,SSE,161,0.0,1.0,62,0.00,,,0.00,Wunderground v.1.15,2013-04-19 00:00:00,
2013-04-18 20:01:00,73.9,60.1,29.98,SSE,160,0.0,1.0,62,0.00,,,0.00,Wunderground v.1.15,2013-04-19 00:01:00,
2013-04-18 20:04:00,73.8,60.4,29.98,SSE,160,0.0,1.0,63,0.00,,,0.00,Wunderground v.1.15,2013-04-19 00:04:00,
2013-04-18 20:05:00,73.7,60.3,29.98,SSE,161,0.0,1.0,63,0.00,,,0.00,Wunderground v.1.15,2013-04-19 00:05:00,
2013-04-18 20:06:00,73.7,60.3,29.98,SSE,161,0.0,1.0,63,0.00,,,0.00,Wunderground v.1.15,2013-04-19 00:06:00,
2013-04-18 20:09:00,73.5,60.1,29.98,SSE,160,0.0,1.0,63,0.00,,,0.00,Wunderground v.1.15,2013-04-19 00:09:00,
2013-04-18 20:10:00,73.5,60.1,29.98,SSE,161,0.0,0.0,63,0.00,,,0.00,Wunderground v.1.15,2013-04-19 00:10:00,
2013-04-18 20:11:00,73.4,60.0,29.98,SSE,160,0.0,0.0,63,0.00,,,0.00,Wunderground v.1.15,2013-04-19 00:11:00,
2013-04-18 20:14:00,73.2,59.8,29.98,SSE,154,0.0,1.0,63,0.00,,,0.00,Wunderground v.1.15,2013-04-19 00:14:00,
2013-04-18 20:15:00,73.2,59.8,29.98,SSE,153,1.0,1.0,63,0.00,,,0.00,Wunderground v.1.15,2013-04-19 00:15:00,
2013-04-18 20:16:00,73.1,59.8,29.98,SSE,153,0.0,1.0,63,0.00,,,0.00,Wunderground v.1.15,2013-04-19 00:16:00,
2013-04-18 20:19:00,73.0,60.1,29.98,SSE,153,0.0,1.0,64,0.00,,,0.00,Wunderground v.1.15,2013-04-19 00:19:00,
2013-04-18 20:20:00,73.0,60.1,29.98,SSE,153,0.0,0.0,64,0.00,,,0.00,Wunderground v.1.15,2013-04-19 00:20:00,
2013-04-18 20:21:00,72.9,60.0,29.98,SSE,153,0.0,0.0,64,0.00,,,0.00,Wunderground v.1.15,2013-04-19 00:21:00,
2013-04-18 20:24:00,72.8,59.9,29.99,ESE,123,1.0,1.0,64,0.00,,,0.00,Wunderground v.1.15,2013-04-19 00:24:00,
2013-04-18 20:25:00,72.7,59.8,29.99,ESE,123,0.0,1.0,64,0.00,,,0.00,Wunderground v.1.15,2013-04-19 00:25:00,
2013-04-18 20:26:00,72.7,59.8,29.99,ESE,122,1.0,1.0,64,0.00,,,0.00,Wunderground v.1.15,2013-04-19 00:26:00,
2013-04-18 20:27:00,72.7,59.8,29.99,ESE,122,0.0,1.0,64,0.00,,,0.00,Wunderground v.1.15,2013-04-19 00:27:00,
2013-04-18 20:29:00,72.5,60.1,29.99,ESE,110,1.0,3.0,65,0.00,,,0.00,Wunderground v.1.15,2013-04-19 00:29:00,
2013-04-18 20:30:00,72.5,60.1,29.99,SSE,149,0.0,1.0,65,0.00,,,0.00,Wunderground v.1.15,2013-04-19 00:30:00,
2013-04-18 20:31:00,72.5,60.1,29.99,ESE,103,2.0,2.0,65,0.00,,,0.00,Wunderground v.1.15,2013-04-19 00:31:00,
2013-04-18 20:32:00,72.5,60.1,29.99,ESE,104,0.0,2.0,65,0.00,,,0.00,Wunderground v.1.15,2013-04-19 00:32:00,
2013-04-18 20:35:00,72.4,60.8,29.99,SE,143,1.0,3.0,67,0.00,,,0.00,Wunderground v.1.15,2013-04-19 00:35:00,
2013-04-18 20:36:00,72.4,60.8,29.98,SE,144,2.0,3.0,67,0.00,,,0.00,Wunderground v.1.15,2013-04-19 00:36:00,
2013-04-18 20:37:00,72.4,60.8,29.99,SSE,156,1.0,3.0,67,0.00,,,0.00,Wunderground v.1.15,2013-04-19 00:37:00,
2013-04-18 20:40:00,72.2,61.0,29.99,South,190,1.0,1.0,68,0.00,,,0.00,Wunderground v.1.15,2013-04-19 00:40:00,
2013-04-18 20:41:00,72.2,61.0,29.99,SSW,200,1.0,1.0,68,0.00,,,0.00,Wunderground v.1.15,2013-04-19 00:41:00,
2013-04-18 20:42:00,72.2,61.0,29.99,SSW,200,1.0,1.0,68,0.00,,,0.00,Wunderground v.1.15,2013-04-19 00:42:00,
2013-04-18 20:43:00,72.1,61.4,29.99,South,177,1.0,2.0,69,0.00,,,0.00,Wunderground v.1.15,2013-04-19 00:43:00,
2013-04-18 20:45:00,72.1,61.4,29.99,SE,144,1.0,3.0,69,0.00,,,0.00,Wunderground v.1.15,2013-04-19 00:45:00,
2013-04-18 20:47:00,72.0,61.7,29.99,SSE,162,1.0,3.0,70,0.00,,,0.00,Wunderground v.1.15,2013-04-19 00:47:00,
2013-04-18 20:48:00,72.0,61.7,29.99,ESE,115,2.0,3.0,70,0.00,,,0.00,Wunderground v.1.15,2013-04-19 00:48:00,
2013-04-18 20:50:00,71.9,61.6,29.99,SSE,165,1.0,2.0,70,0.00,,,0.00,Wunderground v.1.15,2013-04-19 00:50:00,
2013-04-18 20:52:00,71.9,61.6,29.99,ESE,118,1.0,2.0,70,0.00,,,0.00,Wunderground v.1.15,2013-04-19 00:52:00,
2013-04-18 20:53:00,71.9,61.6,29.99,East,82,2.0,2.0,70,0.00,,,0.00,Wunderground v.1.15,2013-04-19 00:53:00,
2013-04-18 20:56:00,71.8,61.9,29.99,SSW,203,2.0,3.0,71,0.00,,,0.00,Wunderground v.1.15,2013-04-19 00:56:00,
2013-04-18 20:57:00,71.7,61.8,29.99,South,170,2.0,3.0,71,0.00,,,0.00,Wunderground v.1.15,2013-04-19 00:57:00,
2013-04-18 20:58:00,71.7,61.8,29.99,ENE,66,1.0,3.0,71,0.00,,,0.00,Wunderground v.1.15,2013-04-19 00:58:00,
2013-04-18 21:01:00,71.6,61.7,29.99,SSW,201,2.0,3.0,71,0.00,,,0.00,Wunderground v.1.15,2013-04-19 01:01:00,
2013-04-18 21:02:00,71.6,61.7,29.99,SE,131,1.0,3.0,71,0.00,,,0.00,Wunderground v.1.15,2013-04-19 01:02:00,
2013-04-18 21:03:00,71.5,62.0,29.99,SE,131,1.0,3.0,72,0.00,,,0.00,Wunderground v.1.15,2013-04-19 01:03:00,
2013-04-18 21:04:00,71.5,62.0,29.99,ESE,105,2.0,3.0,72,0.00,,,0.00,Wunderground v.1.15,2013-04-19 01:04:00,
2013-04-18 21:06:00,71.5,62.0,29.99,ESE,118,1.0,3.0,72,0.00,,,0.00,Wunderground v.1.15,2013-04-19 01:06:00,
2013-04-18 21:08:00,71.4,61.9,29.99,SSE,165,1.0,3.0,72,0.00,,,0.00,Wunderground v.1.15,2013-04-19 01:08:00,
2013-04-18 21:09:00,71.4,61.9,29.99,SW,222,1.0,3.0,72,0.00,,,0.00,Wunderground v.1.15,2013-04-19 01:09:00,
2013-04-18 21:11:00,71.2,61.7,29.99,ESE,120,1.0,3.0,72,0.00,,,0.00,Wunderground v.1.15,2013-04-19 01:11:00,
2013-04-18 21:13:00,71.2,61.7,29.99,SE,141,0.0,3.0,72,0.00,,,0.00,Wunderground v.1.15,2013-04-19 01:13:00,
2013-04-18 21:14:00,71.2,62.1,29.99,ESE,110,1.0,3.0,73,0.00,,,0.00,Wunderground v.1.15,2013-04-19 01:14:00,
2013-04-18 21:16:00,71.1,62.0,29.99,East,89,2.0,4.0,73,0.00,,,0.00,Wunderground v.1.15,2013-04-19 01:16:00,
2013-04-18 21:18:00,71.0,61.9,29.99,SW,221,1.0,4.0,73,0.00,,,0.00,Wunderground v.1.15,2013-04-19 01:18:00,
2013-04-18 21:19:00,71.0,61.9,29.99,ESE,118,1.0,4.0,73,0.00,,,0.00,Wunderground v.1.15,2013-04-19 01:19:00,
2013-04-18 21:21:00,70.9,61.8,29.99,SSE,154,0.0,2.0,73,0.00,,,0.00,Wunderground v.1.15,2013-04-19 01:21:00,
2013-04-18 21:23:00,70.8,61.7,29.99,SSE,156,0.0,2.0,73,0.00,,,0.00,Wunderground v.1.15,2013-04-19 01:23:00,
2013-04-18 21:24:00,70.8,61.7,29.99,SSE,150,1.0,2.0,73,0.00,,,0.00,Wunderground v.1.15,2013-04-19 01:24:00,
2013-04-18 21:27:00,70.7,62.0,29.99,ESE,110,2.0,2.0,74,0.00,,,0.00,Wunderground v.1.15,2013-04-19 01:27:00,
2013-04-18 21:28:00,70.6,61.9,29.99,SSE,165,1.0,3.0,74,0.00,,,0.00,Wunderground v.1.15,2013-04-19 01:28:00,
2013-04-18 21:29:00,70.6,61.9,29.99,SSE,165,0.0,3.0,74,0.00,,,0.00,Wunderground v.1.15,2013-04-19 01:29:00,
2013-04-18 21:30:00,70.6,61.9,29.99,ENE,78,4.0,4.0,74,0.00,,,0.00,Wunderground v.1.15,2013-04-19 01:30:00,
2013-04-18 21:33:00,70.5,61.8,29.99,SE,124,1.0,4.0,74,0.00,,,0.00,Wunderground v.1.15,2013-04-19 01:33:00,
2013-04-18 21:34:00,70.4,61.7,29.99,SSE,164,1.0,4.0,74,0.00,,,0.00,Wunderground v.1.15,2013-04-19 01:34:00,
2013-04-18 21:35:00,70.4,61.7,29.99,SSE,164,0.0,4.0,74,0.00,,,0.00,Wunderground v.1.15,2013-04-19 01:35:00,
2013-04-18 21:38:00,70.3,62.0,30.00,South,186,2.0,4.0,75,0.00,,,0.00,Wunderground v.1.15,2013-04-19 01:38:00,
2013-04-18 21:39:00,70.2,61.9,29.99,South,190,1.0,4.0,75,0.00,,,0.00,Wunderground v.1.15,2013-04-19 01:39:00,
2013-04-18 21:40:00,70.2,61.9,30.00,ESE,102,1.0,1.0,75,0.00,,,0.00,Wunderground v.1.15,2013-04-19 01:40:00,
2013-04-18 21:43:00,70.1,61.8,30.00,SSE,155,1.0,2.0,75,0.00,,,0.00,Wunderground v.1.15,2013-04-19 01:43:00,
2013-04-18 21:44:00,70.0,61.7,30.00,East,101,1.0,2.0,75,0.00,,,0.00,Wunderground v.1.15,2013-04-19 01:44:00,
2013-04-18 21:45:00,70.0,61.7,30.00,SSE,153,0.0,2.0,75,0.00,,,0.00,Wunderground v.1.15,2013-04-19 01:45:00,
2013-04-18 21:48:00,69.9,61.6,30.00,ESE,108,2.0,2.0,75,0.00,,,0.00,Wunderground v.1.15,2013-04-19 01:48:00,
2013-04-18 21:49:00,69.8,61.9,30.00,SSE,164,1.0,3.0,76,0.00,,,0.00,Wunderground v.1.15,2013-04-19 01:49:00,
2013-04-18 21:50:00,69.8,61.9,30.00,SSE,163,1.0,3.0,76,0.00,,,0.00,Wunderground v.1.15,2013-04-19 01:50:00,
2013-04-18 21:51:00,69.7,61.8,30.00,SW,215,1.0,1.0,76,0.00,,,0.00,Wunderground v.1.15,2013-04-19 01:51:00,
2013-04-18 21:53:00,69.7,61.8,30.00,East,85,0.0,2.0,76,0.00,,,0.00,Wunderground v.1.15,2013-04-19 01:53:00,
2013-04-18 21:55:00,69.6,61.7,30.00,SSW,202,0.0,2.0,76,0.00,,,0.00,Wunderground v.1.15,2013-04-19 01:55:00,
2013-04-18 21:56:00,69.6,61.7,30.00,SE,143,1.0,2.0,76,0.00,,,0.00,Wunderground v.1.15,2013-04-19 01:56:00,
2013-04-18 21:58:00,69.5,61.6,30.00,SSW,206,1.0,2.0,76,0.00,,,0.00,Wunderground v.1.15,2013-04-19 01:58:00,
2013-04-18 22:00:00,69.5,61.6,30.00,SSE,158,1.0,1.0,76,0.00,,,0.00,Wunderground v.1.15,2013-04-19 02:00:00,
2013-04-18 22:01:00,69.4,61.9,30.00,ESE,110,1.0,1.0,77,0.00,,,0.00,Wunderground v.1.15,2013-04-19 02:01:00,
2013-04-18 22:03:00,69.4,61.9,30.00,SSE,162,0.0,2.0,77,0.00,,,0.00,Wunderground v.1.15,2013-04-19 02:03:00,
2013-04-18 22:05:00,69.4,61.9,30.00,SW,230,1.0,2.0,77,0.00,,,0.00,Wunderground v.1.15,2013-04-19 02:05:00,
2013-04-18 22:06:00,69.3,61.8,30.00,ESE,113,1.0,2.0,77,0.00,,,0.00,Wunderground v.1.15,2013-04-19 02:06:00,
2013-04-18 22:07:00,69.3,61.8,30.01,ESE,115,0.0,2.0,77,0.00,,,0.00,Wunderground v.1.15,2013-04-19 02:07:00,
2013-04-18 22:08:00,69.2,61.7,30.01,ESE,113,1.0,2.0,77,0.00,,,0.00,Wunderground v.1.15,2013-04-19 02:08:00,
2013-04-18 22:10:00,69.2,61.7,30.00,SSE,163,0.0,1.0,77,0.00,,,0.00,Wunderground v.1.15,2013-04-19 02:10:00,
2013-04-18 22:12:00,69.1,61.6,30.01,South,177,0.0,2.0,77,0.00,,,0.00,Wunderground v.1.15,2013-04-19 02:12:00,
2013-04-18 22:14:00,69.0,61.9,30.00,ESE,122,1.0,2.0,78,0.00,,,0.00,Wunderground v.1.15,2013-04-19 02:14:00,
2013-04-18 22:15:00,69.0,61.9,30.00,ESE,122,0.0,2.0,78,0.00,,,0.00,Wunderground v.1.15,2013-04-19 02:15:00,
2013-04-18 22:17:00,68.9,61.8,30.00,SW,217,0.0,2.0,78,0.00,,,0.00,Wunderground v.1.15,2013-04-19 02:17:00,
2013-04-18 22:18:00,68.8,61.7,30.00,East,93,2.0,2.0,78,0.00,,,0.00,Wunderground v.1.15,2013-04-19 02:18:00,
2013-04-18 22:19:00,68.8,61.7,30.00,SW,219,0.0,2.0,78,0.00,,,0.00,Wunderground v.1.15,2013-04-19 02:19:00,
2013-04-18 22:20:00,68.8,61.7,30.00,SSW,205,2.0,2.0,78,0.00,,,0.00,Wunderground v.1.15,2013-04-19 02:20:00,
2013-04-18 22:21:00,68.8,61.7,30.00,SW,222,0.0,2.0,78,0.00,,,0.00,Wunderground v.1.15,2013-04-19 02:21:00,
2013-04-18 22:22:00,68.7,61.6,30.00,South,184,1.0,2.0,78,0.00,,,0.00,Wunderground v.1.15,2013-04-19 02:22:00,
2013-04-18 22:23:00,68.6,61.8,30.00,ESE,105,2.0,2.0,79,0.00,,,0.00,Wunderground v.1.15,2013-04-19 02:23:00,
2013-04-18 22:24:00,68.6,61.8,30.00,SE,143,1.0,2.0,79,0.00,,,0.00,Wunderground v.1.15,2013-04-19 02:24:00,
2013-04-18 22:25:00,68.6,61.8,30.00,South,170,1.0,2.0,79,0.00,,,0.00,Wunderground v.1.15,2013-04-19 02:25:00,
2013-04-18 22:26:00,68.6,61.8,30.00,South,170,1.0,2.0,79,0.00,,,0.00,Wunderground v.1.15,2013-04-19 02:26:00,
2013-04-18 22:27:00,68.6,61.8,30.00,South,170,0.0,2.0,79,0.00,,,0.00,Wunderground v.1.15,2013-04-19 02:27:00,
2013-04-18 22:29:00,68.5,61.7,30.00,ESE,102,2.0,2.0,79,0.00,,,0.00,Wunderground v.1.15,2013-04-19 02:29:00,
2013-04-18 22:31:00,68.5,61.7,30.00,ESE,105,2.0,3.0,79,0.00,,,0.00,Wunderground v.1.15,2013-04-19 02:31:00,
2013-04-18 22:33:00,68.4,61.6,30.00,ESE,105,1.0,3.0,79,0.00,,,0.00,Wunderground v.1.15,2013-04-19 02:33:00,
2013-04-18 22:34:00,68.4,62.0,30.00,SE,135,0.0,3.0,80,0.00,,,0.00,Wunderground v.1.15,2013-04-19 02:34:00,
2013-04-18 22:35:00,68.4,62.0,30.00,SE,135,1.0,3.0,80,0.00,,,0.00,Wunderground v.1.15,2013-04-19 02:35:00,
2013-04-18 22:36:00,68.4,62.0,30.00,SE,135,0.0,3.0,80,0.00,,,0.00,Wunderground v.1.15,2013-04-19 02:36:00,
2013-04-18 22:38:00,68.3,61.9,30.00,SSE,165,0.0,3.0,80,0.00,,,0.00,Wunderground v.1.15,2013-04-19 02:38:00,
2013-04-18 22:39:00,68.3,61.9,30.00,SE,143,1.0,3.0,80,0.00,,,0.00,Wunderground v.1.15,2013-04-19 02:39:00,
2013-04-18 22:40:00,68.2,61.8,30.00,SSE,160,2.0,2.0,80,0.00,,,0.00,Wunderground v.1.15,2013-04-19 02:40:00,
2013-04-18 22:41:00,68.2,61.8,30.00,SE,124,1.0,2.0,80,0.00,,,0.00,Wunderground v.1.15,2013-04-19 02:41:00,
2013-04-18 22:43:00,68.2,61.8,30.00,SSW,207,0.0,2.0,80,0.00,,,0.00,Wunderground v.1.15,2013-04-19 02:43:00,
2013-04-18 22:44:00,68.1,62.0,30.00,SSW,207,0.0,2.0,81,0.00,,,0.00,Wunderground v.1.15,2013-04-19 02:44:00,
2013-04-18 22:45:00,68.1,62.0,30.00,SSW,207,0.0,2.0,81,0.00,,,0.00,Wunderground v.1.15,2013-04-19 02:45:00,
2013-04-18 22:46:00,68.0,61.9,30.00,SSW,207,0.0,2.0,81,0.00,,,0.00,Wunderground v.1.15,2013-04-19 02:46:00,
2013-04-18 22:48:00,68.0,61.9,30.00,SSE,150,1.0,2.0,81,0.00,,,0.00,Wunderground v.1.15,2013-04-19 02:48:00,
2013-04-18 22:50:00,67.9,61.9,30.00,SSE,161,1.0,1.0,81,0.00,,,0.00,Wunderground v.1.15,2013-04-19 02:50:00,
2013-04-18 22:51:00,67.8,61.8,30.00,SE,145,0.0,1.0,81,0.00,,,0.00,Wunderground v.1.15,2013-04-19 02:51:00,
2013-04-18 22:53:00,67.8,62.1,30.00,SSW,197,1.0,1.0,82,0.00,,,0.00,Wunderground v.1.15,2013-04-19 02:53:00,
2013-04-18 22:55:00,67.7,62.0,30.00,SE,143,1.0,2.0,82,0.00,,,0.00,Wunderground v.1.15,2013-04-19 02:55:00,
2013-04-18 22:56:00,67.7,62.0,30.00,ESE,105,2.0,2.0,82,0.00,,,0.00,Wunderground v.1.15,2013-04-19 02:56:00,
2013-04-18 22:58:00,67.7,62.0,30.00,SSW,203,1.0,4.0,82,0.00,,,0.00,Wunderground v.1.15,2013-04-19 02:58:00,
2013-04-18 23:00:00,67.7,62.0,30.00,South,174,0.0,1.0,82,0.00,,,0.00,Wunderground v.1.15,2013-04-19 03:00:00,
2013-04-18 23:01:00,67.6,61.9,30.00,SSW,200,1.0,1.0,82,0.00,,,0.00,Wunderground v.1.15,2013-04-19 03:01:00,
2013-04-18 23:02:00,67.6,61.9,30.00,SSW,207,1.0,1.0,82,0.00,,,0.00,Wunderground v.1.15,2013-04-19 03:02:00,
2013-04-18 23:03:00,67.6,61.9,29.99,ESE,105,1.0,2.0,82,0.00,,,0.00,Wunderground v.1.15,2013-04-19 03:03:00,
2013-04-18 23:05:00,67.5,62.2,30.00,SE,139,1.0,2.0,83,0.00,,,0.00,Wunderground v.1.15,2013-04-19 03:05:00,
2013-04-18 23:06:00,67.5,62.2,30.00,SE,135,1.0,2.0,83,0.00,,,0.00,Wunderground v.1.15,2013-04-19 03:06:00,
2013-04-18 23:07:00,67.5,62.2,30.00,South,176,2.0,2.0,83,0.00,,,0.00,Wunderground v.1.15,2013-04-19 03:07:00,
2013-04-18 23:08:00,67.5,62.2,30.00,SE,143,1.0,2.0,83,0.00,,,0.00,Wunderground v.1.15,2013-04-19 03:08:00,
2013-04-18 23:11:00,67.4,62.1,29.99,SE,139,0.0,1.0,83,0.00,,,0.00,Wunderground v.1.15,2013-04-19 03:11:00,
2013-04-18 23:12:00,67.4,62.1,29.99,ESE,105,1.0,1.0,83,0.00,,,0.00,Wunderground v.1.15,2013-04-19 03:12:00,
2013-04-18 23:13:00,67.4,62.1,29.99,SSE,156,0.0,2.0,83,0.00,,,0.00,Wunderground v.1.15,2013-04-19 03:13:00,
2013-04-18 23:16:00,67.3,62.0,29.99,SSW,204,1.0,3.0,83,0.00,,,0.00,Wunderground v.1.15,2013-04-19 03:16:00,
2013-04-18 23:17:00,67.3,62.0,29.99,SE,143,1.0,3.0,83,0.00,,,0.00,Wunderground v.1.15,2013-04-19 03:17:00,
2013-04-18 23:18:00,67.3,62.0,29.99,SE,146,0.0,3.0,83,0.00,,,0.00,Wunderground v.1.15,2013-04-19 03:18:00,
2013-04-18 23:21:00,67.2,61.9,29.99,SSE,161,0.0,1.0,83,0.00,,,0.00,Wunderground v.1.15,2013-04-19 03:21:00,
2013-04-18 23:22:00,67.2,61.9,29.99,SSE,161,1.0,1.0,83,0.00,,,0.00,Wunderground v.1.15,2013-04-19 03:22:00,
2013-04-18 23:23:00,67.2,61.9,29.99,SSE,160,1.0,1.0,83,0.00,,,0.00,Wunderground v.1.15,2013-04-19 03:23:00,
2013-04-18 23:24:00,67.1,62.1,29.99,ESE,110,2.0,2.0,84,0.00,,,0.00,Wunderground v.1.15,2013-04-19 03:24:00,
2013-04-18 23:26:00,67.1,62.1,29.99,ESE,110,0.0,2.0,84,0.00,,,0.00,Wunderground v.1.15,2013-04-19 03:26:00,
2013-04-18 23:27:00,67.1,62.1,29.99,ESE,110,1.0,2.0,84,0.00,,,0.00,Wunderground v.1.15,2013-04-19 03:27:00,
2013-04-18 23:28:00,67.1,62.1,29.99,ESE,110,1.0,2.0,84,0.00,,,0.00,Wunderground v.1.15,2013-04-19 03:28:00,
2013-04-18 23:29:00,67.0,62.0,29.99,ESE,110,0.0,2.0,84,0.00,,,0.00,Wunderground v.1.15,2013-04-19 03:29:00,
2013-04-18 23:31:00,67.0,62.0,29.99,SSE,156,0.0,1.0,84,0.00,,,0.00,Wunderground v.1.15,2013-04-19 03:31:00,
2013-04-18 23:33:00,66.9,61.9,29.99,SSE,156,0.0,1.0,84,0.00,,,0.00,Wunderground v.1.15,2013-04-19 03:33:00,
2013-04-18 23:34:00,66.9,61.9,29.99,SSW,204,1.0,3.0,84,0.00,,,0.00,Wunderground v.1.15,2013-04-19 03:34:00,
2013-04-18 23:36:00,66.8,61.8,29.99,SW,221,0.0,3.0,84,0.00,,,0.00,Wunderground v.1.15,2013-04-19 03:36:00,
2013-04-18 23:38:00,66.8,61.8,29.99,SW,221,0.0,3.0,84,0.00,,,0.00,Wunderground v.1.15,2013-04-19 03:38:00,
2013-04-18 23:39:00,66.8,61.8,29.99,SW,221,0.0,3.0,84,0.00,,,0.00,Wunderground v.1.15,2013-04-19 03:39:00,
2013-04-18 23:42:00,66.7,62.0,29.99,South,184,0.0,1.0,85,0.00,,,0.00,Wunderground v.1.15,2013-04-19 03:42:00,
2013-04-18 23:43:00,66.7,62.0,29.99,South,184,0.0,1.0,85,0.00,,,0.00,Wunderground v.1.15,2013-04-19 03:43:00,
2013-04-18 23:44:00,66.6,61.9,29.99,South,184,0.0,1.0,85,0.00,,,0.00,Wunderground v.1.15,2013-04-19 03:44:00,
2013-04-18 23:45:00,66.6,61.9,29.99,South,184,0.0,1.0,85,0.00,,,0.00,Wunderground v.1.15,2013-04-19 03:45:00,
2013-04-18 23:47:00,66.6,61.9,29.99,South,184,0.0,1.0,85,0.00,,,0.00,Wunderground v.1.15,2013-04-19 03:47:00,
2013-04-18 23:48:00,66.6,61.9,29.99,South,191,0.0,1.0,85,0.00,,,0.00,Wunderground v.1.15,2013-04-19 03:48:00,
2013-04-18 23:50:00,66.5,61.8,29.99,SSW,194,0.0,1.0,85,0.00,,,0.00,Wunderground v.1.15,2013-04-19 03:50:00,
2013-04-18 23:52:00,66.5,61.8,29.99,SSW,194,0.0,0.0,85,0.00,,,0.00,Wunderground v.1.15,2013-04-19 03:52:00,
2013-04-18 23:53:00,66.5,62.2,29.99,SSW,194,0.0,0.0,86,0.00,,,0.00,Wunderground v.1.15,2013-04-19 03:53:00,
2013-04-18 23:55:00,66.4,62.1,29.99,SSW,194,0.0,1.0,86,0.00,,,0.00,Wunderground v.1.15,2013-04-19 03:55:00,
2013-04-18 23:57:00,66.5,62.2,29.99,South,190,0.0,1.0,86,0.00,,,0.00,Wunderground v.1.15,2013-04-19 03:57:00,
2013-04-18 23:58:00,66.5,62.2,29.99,South,190,0.0,1.0,86,0.00,,,0.00,Wunderground v.1.15,2013-04-19 03:58:00,